GFSSW_925_thetae_030.txt.gz
Theta_e
322 322 321 320 319 318 316 314 312 311 310 310 311 312 310 308 308 313 317 317 313 311 312 312 312 314 314 316 316 315 317 319 318 318 319 325 331 333 332 334 336 337 339 333 327
321 322 321 322 321 320 319 317 314 312 310 310 311 312 309 307 313 315 317 314 309 311 314 314 314 314 316 317 318 317 317 317 317 317 318 322 329 333 335 336 338 338 331 328 328
317 318 319 319 321 320 320 319 316 313 311 310 310 312 309 308 316 321 318 313 310 310 312 312 313 314 316 316 317 318 318 318 318 317 317 323 327 331 334 334 335 337 333 329 328
315 316 316 317 319 319 319 320 318 315 313 310 309 311 308 313 316 319 316 312 310 313 313 313 315 316 316 317 317 317 318 317 318 318 322 328 329 332 332 335 335 334 330 329 330
307 311 313 315 317 319 319 319 319 317 314 312 310 310 311 314 313 312 315 312 312 314 314 316 317 318 319 319 318 318 318 318 318 318 327 328 330 332 336 334 335 332 331 330 329
307 305 305 312 316 318 318 318 319 319 316 313 310 310 312 314 313 317 315 315 314 314 315 316 318 318 319 319 319 319 319 320 320 324 328 329 330 330 334 334 334 333 331 330 328
308 307 305 307 314 316 317 316 318 318 318 315 311 311 313 314 313 318 316 315 315 314 315 314 316 319 320 320 319 319 321 322 322 327 328 327 330 334 334 333 333 332 332 330 330
308 308 306 304 311 314 316 316 317 318 318 313 310 311 315 310 311 317 315 315 314 314 314 314 315 319 320 319 320 320 318 322 324 326 327 327 330 335 333 333 332 331 331 331 331
307 307 307 304 307 313 316 316 316 317 315 311 312 314 315 310 312 312 317 317 315 314 314 313 316 320 320 319 320 320 320 322 323 325 328 328 330 333 333 333 330 330 330 329 328
306 307 307 306 306 312 315 315 317 314 312 312 311 316 314 312 312 315 313 316 317 317 317 317 320 320 319 319 319 320 320 320 323 325 326 328 329 332 334 334 331 330 329 328 327
306 306 307 307 307 313 315 317 317 317 315 319 317 316 310 312 316 317 316 315 318 320 321 320 321 319 318 318 320 321 320 320 321 322 325 325 326 331 334 335 335 333 330 329 328
306 306 307 307 305 313 314 317 316 314 317 316 316 316 314 313 317 318 317 318 320 322 320 320 321 318 318 318 319 321 320 321 321 320 321 323 323 329 334 335 335 334 335 332 330
305 306 306 307 304 312 315 317 314 315 322 318 318 317 316 315 317 318 319 320 320 321 321 321 320 319 319 320 321 321 321 321 321 320 320 322 322 327 330 333 333 333 333 333 330
305 306 306 307 307 313 315 315 314 314 320 314 315 317 316 316 317 317 317 319 319 320 320 321 319 319 320 320 320 321 321 320 321 321 321 320 320 323 326 331 333 332 333 333 331
306 305 305 306 310 315 314 315 315 316 312 314 318 317 318 317 316 317 317 317 319 319 320 320 319 319 320 319 320 320 320 321 322 321 322 321 320 322 324 328 329 331 332 332 331
303 305 305 306 306 312 314 316 316 324 315 313 320 321 320 318 316 317 317 317 318 318 319 319 318 320 320 320 320 320 321 322 323 323 323 322 321 320 321 322 322 326 328 330 331
302 305 304 305 307 311 314 318 323 322 313 313 320 321 319 317 317 317 317 318 318 319 320 319 319 319 319 320 320 321 321 323 323 324 324 322 323 321 321 321 322 323 324 328 330
300 301 304 304 304 307 313 321 317 311 314 317 318 320 319 316 317 318 318 318 318 318 319 320 320 319 320 320 321 322 321 322 324 324 321 322 322 321 321 321 322 322 322 322 326
300 302 305 305 305 307 315 319 310 312 315 317 316 320 321 316 316 318 318 318 318 319 319 320 319 318 320 321 320 322 322 321 324 325 323 321 321 320 320 319 323 324 324 324 324
302 303 305 305 306 306 312 315 310 313 315 316 316 317 319 319 315 318 319 318 318 318 318 319 319 319 321 321 320 322 321 323 324 324 323 321 320 319 318 318 319 320 322 323 324
301 303 304 305 306 307 311 313 311 313 316 320 318 317 318 320 317 317 318 317 319 318 318 318 319 322 322 323 322 322 322 321 323 323 322 321 321 319 319 319 319 320 320 322 324
302 305 304 304 306 308 310 312 310 311 316 319 320 320 321 318 319 317 317 317 317 319 319 319 319 320 319 320 321 321 321 323 324 323 323 325 321 319 320 320 320 321 318 320 323
302 305 304 304 307 308 309 310 311 311 314 319 320 322 323 322 321 318 317 318 318 318 319 320 320 321 319 320 320 321 322 322 322 322 321 329 321 320 320 320 320 320 320 318 318
303 305 306 306 306 308 308 308 311 311 312 317 319 321 323 324 321 320 318 317 318 318 317 319 319 319 320 318 318 321 321 321 322 324 321 322 319 319 320 320 320 321 319 318 321
303 306 306 306 309 308 310 310 311 310 312 314 317 319 322 323 321 320 317 321 316 316 317 320 319 319 317 317 317 318 317 319 320 320 321 320 320 320 319 321 321 318 318 320 322
303 307 309 308 306 306 309 309 310 310 309 313 316 318 319 321 319 322 320 319 322 320 319 320 319 320 320 318 318 318 318 317 318 318 318 320 321 320 320 320 318 317 319 321 321
301 304 308 307 308 307 310 309 309 310 311 311 311 313 315 317 317 319 318 318 319 322 321 321 321 321 320 320 320 321 320 319 319 319 319 321 322 320 320 319 319 319 319 318 316

GFSSW_925_thetae_033.txt.gz
Theta_e
321 322 322 322 322 321 321 320 320 317 314 312 310 309 311 311 308 317 320 318 316 312 312 316 316 316 316 317 317 318 319 321 320 319 321 322 327 333 333 333 335 340 340 334 330
316 317 318 320 320 321 320 319 320 319 316 313 311 309 311 311 315 317 318 317 312 311 316 315 316 317 318 318 319 318 319 320 320 320 320 324 327 331 332 336 338 335 331 330 330
314 315 316 316 317 318 319 318 319 319 319 315 312 310 310 310 320 322 319 315 310 311 315 313 315 316 318 318 319 320 320 320 320 319 321 323 327 329 332 333 326 337 333 330 331
309 310 313 314 315 317 318 318 319 319 319 318 315 311 309 317 318 323 317 313 310 315 314 314 315 317 318 318 318 319 320 320 320 320 324 328 325 323 334 333 330 333 331 330 331
308 308 305 305 310 315 317 318 318 318 319 319 317 314 313 318 317 319 317 313 311 315 315 315 317 319 320 319 320 319 320 320 321 320 327 328 330 331 337 335 335 332 331 332 331
308 308 308 305 304 312 316 317 317 317 318 318 318 316 316 318 315 320 318 314 315 316 317 318 320 320 321 320 321 321 320 321 320 323 327 329 331 332 336 335 334 334 333 330 329
307 307 308 308 303 307 314 315 316 316 318 317 317 313 315 317 314 318 318 316 316 317 319 318 318 320 322 321 321 320 321 321 322 324 325 327 328 333 336 335 334 333 331 327 329
307 307 307 308 306 304 311 314 316 316 316 317 314 314 317 315 313 317 319 317 316 316 316 317 317 320 321 321 320 321 321 323 326 325 326 327 331 336 335 333 332 332 329 330 330
307 306 307 307 307 304 308 313 315 315 316 315 315 316 318 314 312 314 320 317 316 316 317 316 317 320 321 320 320 321 321 326 327 323 327 329 328 334 333 331 330 330 330 329 330
306 306 306 307 307 305 310 314 314 315 315 315 315 318 317 316 314 312 320 318 317 318 317 318 319 320 320 320 320 321 320 322 325 324 325 327 327 333 333 332 331 329 327 327 327
306 306 306 306 307 306 311 316 319 321 317 316 319 315 314 314 315 314 319 320 320 321 321 322 322 322 320 320 319 322 321 322 323 325 323 326 327 329 333 332 331 330 330 327 326
306 305 306 306 307 306 311 316 316 317 315 315 316 317 317 315 318 316 316 321 321 323 322 323 322 321 320 319 319 320 320 321 322 321 321 322 325 327 331 332 332 331 330 330 326
303 306 306 306 306 306 312 314 316 316 318 315 316 317 316 316 316 317 319 320 321 322 322 323 322 320 319 319 320 320 321 322 321 322 321 321 323 323 326 330 332 331 330 328 328
303 304 306 306 306 306 313 313 315 317 319 313 318 319 317 317 317 316 317 320 320 321 321 321 322 320 319 320 320 320 320 321 321 321 322 322 324 323 324 328 331 332 330 329 328
300 302 306 305 309 313 315 315 317 319 312 314 316 317 316 317 315 317 317 319 320 320 321 322 322 320 320 320 320 321 322 321 322 322 323 321 320 323 321 324 327 330 331 330 329
301 302 304 306 307 308 313 317 320 320 314 315 320 319 320 317 315 318 318 319 319 320 320 321 320 320 320 320 320 321 322 322 322 323 325 322 322 323 321 322 323 325 328 330 329
301 301 302 306 308 307 309 316 319 314 310 313 318 320 320 319 317 318 318 319 320 321 321 321 320 320 320 321 321 321 322 324 325 327 326 322 322 321 322 321 321 321 324 327 329
302 301 302 305 307 308 307 318 312 310 311 317 316 320 321 319 319 318 319 319 319 319 320 321 322 320 320 321 321 321 321 324 330 332 328 323 322 321 321 322 321 321 321 322 327
302 302 303 303 306 306 310 316 314 310 310 312 317 321 321 319 318 319 318 318 318 318 320 321 321 320 320 320 321 322 324 321 323 324 326 325 322 321 321 320 320 322 323 324 324
304 303 303 303 306 306 310 313 314 310 309 312 314 318 321 319 317 318 319 318 317 317 319 320 321 320 320 321 321 321 323 324 324 330 328 322 322 321 320 319 319 319 322 322 324
303 305 304 305 306 309 309 311 312 312 310 310 314 318 319 321 318 318 319 318 318 317 319 320 320 321 322 322 321 322 324 323 323 324 327 325 323 321 320 320 320 320 319 320 322
303 306 304 304 308 307 308 311 309 312 311 313 316 318 316 318 322 318 318 319 318 318 319 320 320 323 322 321 320 321 322 323 328 326 327 329 325 320 320 320 321 320 320 321 322
304 305 304 305 309 309 308 308 308 308 312 311 314 319 321 319 319 321 319 318 319 319 320 321 321 324 323 320 321 321 324 324 323 325 327 334 324 321 320 320 320 320 320 321 321
303 306 306 307 308 309 308 309 308 307 309 312 312 315 317 321 321 320 321 320 319 319 320 321 320 321 324 321 320 321 320 321 323 330 326 326 322 321 320 321 321 320 321 321 321
302 306 307 308 309 310 309 308 308 307 307 311 312 316 317 316 318 320 321 320 319 317 319 321 323 321 320 319 319 318 319 320 322 322 325 324 322 320 320 321 319 322 321 321 321
300 306 308 309 308 309 309 308 308 308 308 311 313 314 319 321 319 323 321 321 319 319 320 322 322 321 319 318 318 318 318 318 320 320 321 321 321 320 320 320 320 320 321 322 323
300 304 308 308 309 310 311 309 307 308 310 310 311 314 315 315 319 321 319 319 321 322 321 321 324 324 323 319 319 323 319 319 319 318 319 321 320 319 319 321 321 320 321 323 323

GFSSW_925_thetae_039.txt.gz
Theta_e
312 313 313 315 316 316 316 316 316 317 317 317 317 317 317 319 313 311 318 320 321 320 314 312 314 314 314 313 313 313 311 312 316 319 317 321 323 323 327 326 328 330 332 331 329
309 309 309 309 310 312 313 314 314 316 317 317 317 316 315 318 314 316 317 318 319 316 312 314 315 315 312 313 313 311 311 313 317 317 318 318 325 329 327 329 327 332 331 330 329
309 308 308 308 307 305 305 305 309 314 317 317 317 315 314 316 319 322 320 318 318 313 310 315 317 314 313 313 313 313 313 314 318 319 319 322 326 330 326 325 325 330 330 330 329
308 307 307 308 308 308 306 303 306 313 315 316 316 315 313 317 319 321 319 318 316 311 312 317 314 313 313 313 314 315 315 316 317 318 320 324 326 332 326 327 323 329 331 330 329
307 307 307 307 307 308 308 306 303 307 313 315 315 316 315 318 319 319 318 316 312 310 315 316 314 313 314 317 317 316 316 316 317 317 321 327 332 335 335 331 329 329 331 331 328
307 306 307 307 307 307 307 307 306 303 309 312 315 315 317 320 313 318 318 315 312 310 314 316 315 315 318 318 318 318 318 318 317 316 324 326 328 332 335 331 331 331 330 328 326
306 307 306 306 307 306 306 307 306 305 305 310 314 315 316 315 308 319 317 318 314 314 313 316 317 317 316 317 319 319 318 317 317 317 324 320 323 329 332 332 332 331 329 327 324
304 304 307 306 306 306 306 306 306 306 304 311 314 314 316 309 310 315 316 316 318 315 315 316 318 317 317 316 318 318 317 317 317 323 323 322 327 324 324 332 329 328 326 327 325
303 304 304 307 306 306 305 306 304 301 307 313 314 314 319 315 315 312 313 317 319 318 316 317 317 316 316 316 316 317 316 316 317 322 326 325 327 325 328 333 328 327 322 322 326
302 302 303 304 306 305 306 305 299 304 310 316 316 316 317 315 316 316 315 315 319 317 317 316 315 314 313 314 318 318 317 320 322 324 327 328 328 325 326 333 330 325 325 327 327
304 303 302 302 305 305 306 305 313 317 317 320 317 313 314 316 317 316 316 315 318 316 316 316 315 315 314 315 317 318 318 319 321 324 326 329 328 322 323 330 331 326 326 329 325
303 303 302 301 304 306 306 307 310 310 314 317 319 319 318 319 318 316 314 315 319 318 316 317 317 316 317 318 319 320 319 317 318 323 324 328 327 323 325 330 326 325 326 328 325
304 303 303 301 304 306 305 306 304 307 314 314 314 313 312 312 316 316 313 314 319 319 317 317 318 318 319 320 321 320 319 317 319 321 321 321 333 332 330 327 329 324 322 325 326
304 304 303 302 305 306 306 312 315 314 317 312 309 310 310 311 314 314 316 315 320 320 318 319 319 320 321 322 320 319 318 318 320 321 321 319 321 334 329 331 329 326 324 323 326
304 304 303 301 305 306 310 309 312 317 304 309 309 311 311 312 315 314 315 315 319 320 319 320 319 320 321 321 320 319 319 322 322 321 320 320 321 321 329 331 329 327 327 324 325
303 304 303 302 302 303 306 306 313 319 318 310 316 316 316 312 314 315 314 314 315 319 319 319 318 319 318 320 319 318 322 322 322 321 321 320 323 322 329 329 329 328 327 326 323
304 304 304 302 303 306 308 310 316 313 305 305 316 316 317 317 315 315 316 315 315 317 319 318 318 318 319 319 319 318 320 322 322 322 321 327 327 323 319 321 323 328 327 326 325
304 303 304 303 302 303 307 312 315 308 308 310 310 316 319 317 317 318 317 316 314 316 318 319 320 318 319 319 320 318 320 323 324 324 327 326 326 325 322 321 321 327 327 325 324
304 304 305 303 302 304 309 311 310 309 307 307 307 308 310 319 318 317 317 316 316 315 318 319 319 318 318 318 318 319 320 319 322 329 327 328 327 325 322 320 320 319 322 320 320
305 305 304 303 303 304 309 309 309 309 308 308 307 309 309 314 319 318 318 317 316 315 316 318 321 319 319 318 318 318 319 322 323 329 329 329 329 327 323 321 319 317 319 320 321
306 306 304 303 305 305 310 307 307 308 309 310 308 307 308 311 311 313 316 318 315 316 316 316 317 319 320 320 319 319 319 322 324 326 327 325 323 321 323 321 318 315 317 318 319
306 306 304 304 306 306 307 307 307 307 308 310 309 309 309 310 311 312 322 321 319 318 318 317 319 318 319 320 319 318 319 320 325 327 327 326 324 321 320 320 319 318 316 316 320
306 305 304 304 306 305 306 307 307 307 307 308 309 308 309 310 310 322 323 321 321 319 321 317 318 319 319 318 318 319 319 320 321 322 324 324 325 319 319 319 318 318 317 317 317
305 304 306 305 304 304 305 307 307 307 308 308 308 308 309 310 311 319 321 320 320 320 320 321 318 318 319 319 320 321 321 320 319 322 323 323 324 323 323 322 319 319 319 316 316
303 302 305 307 306 305 305 306 307 308 308 307 307 307 308 309 309 314 318 320 320 320 322 324 321 318 317 318 320 321 321 321 320 321 324 325 325 323 322 321 320 320 319 320 319
299 302 305 305 306 306 307 305 306 307 307 308 306 307 308 308 308 310 318 321 322 320 321 323 323 320 320 318 319 320 321 320 319 319 323 323 323 321 321 319 321 319 319 318 317
303 300 305 306 307 307 307 307 307 307 307 307 307 306 307 308 310 316 317 319 321 318 315 321 321 321 320 319 319 319 319 319 320 319 319 322 322 321 320 320 320 319 319 317 317

GFSSW_925_thetae_042.txt.gz
Theta_e
309 309 309 309 309 308 307 309 310 311 311 314 316 316 314 313 310 314 314 314 320 317 317 312 315 311 312 311 312 309 310 309 311 315 317 322 323 325 325 326 330 330 333 330 329
308 309 309 309 308 308 307 305 303 304 309 314 315 315 314 313 314 315 318 317 319 320 314 311 314 312 311 311 312 310 308 311 311 316 318 321 327 328 328 327 332 332 331 330 330
308 308 308 308 308 308 308 307 306 303 305 312 314 314 313 312 317 317 320 317 317 317 313 312 315 315 312 312 311 311 312 314 314 316 317 329 330 326 322 324 326 330 332 331 329
308 307 307 307 307 307 307 307 307 306 303 307 312 313 313 315 310 321 318 317 317 314 310 315 315 312 312 313 312 314 314 313 313 317 319 325 328 331 327 326 325 327 331 329 328
307 308 307 306 307 307 306 306 306 306 305 303 309 313 314 317 317 312 314 317 315 311 313 314 316 313 312 312 315 316 314 314 316 317 326 330 333 336 334 329 328 329 331 330 328
304 305 306 307 306 306 306 306 305 305 305 304 306 313 315 316 308 312 316 316 312 311 312 314 316 313 313 316 316 317 317 316 316 316 329 334 335 333 333 329 328 331 331 328 326
304 304 304 304 306 306 305 305 305 305 304 304 305 313 313 313 305 317 317 317 315 312 310 312 315 314 315 316 317 317 317 315 316 316 323 322 325 332 333 330 331 330 328 325 324
303 303 303 303 304 306 306 305 305 305 304 303 308 312 313 307 307 309 308 311 311 315 313 313 314 315 316 316 315 316 315 316 315 322 322 320 324 326 332 333 330 327 328 326 323
303 303 302 302 303 304 306 305 304 303 304 306 312 312 314 312 315 315 312 313 316 316 316 315 315 315 315 314 313 315 316 316 316 317 324 323 325 322 328 333 330 327 326 325 323
304 304 304 302 301 303 305 305 302 305 307 313 315 314 313 311 315 315 315 311 315 317 317 314 313 314 311 312 315 316 316 315 315 323 325 326 324 324 326 331 328 325 320 326 324
305 304 303 303 302 301 305 305 307 314 315 318 317 314 312 313 317 316 315 314 314 316 315 315 314 315 313 312 314 315 316 315 315 320 326 326 325 323 327 331 328 324 322 322 325
305 304 304 302 302 301 305 305 306 305 307 309 314 317 316 316 318 316 316 313 315 318 314 315 316 315 315 315 315 316 317 317 315 321 322 325 326 323 326 329 330 325 324 325 325
304 304 304 303 302 301 305 305 305 307 308 311 312 314 316 316 319 317 313 312 317 318 316 316 316 316 316 316 317 317 318 318 316 320 319 325 327 326 324 327 326 328 324 326 325
304 304 304 303 301 304 306 307 306 308 312 309 311 310 311 310 312 311 313 311 315 319 318 315 316 316 317 317 317 319 319 317 317 319 319 317 320 330 326 326 326 327 324 327 325
304 304 304 303 301 302 307 305 307 310 296 303 309 310 311 309 310 312 312 312 314 319 318 319 318 317 318 318 318 320 320 318 320 320 319 319 318 317 327 328 326 326 323 324 324
304 304 304 304 303 301 303 307 311 314 309 309 311 310 310 309 313 313 312 314 314 317 318 317 317 317 318 319 318 318 318 320 319 318 321 319 319 320 328 327 326 326 323 324 325
304 304 304 303 301 302 303 309 316 313 305 304 313 315 312 310 311 313 314 313 315 316 318 319 319 318 317 317 318 317 318 321 321 322 322 321 325 322 321 323 326 327 325 323 325
305 304 304 304 303 302 303 312 316 308 305 306 308 307 314 313 311 313 314 314 312 314 314 316 318 317 317 317 318 318 317 319 323 324 322 325 324 322 321 321 322 325 325 325 322
305 305 304 303 303 303 305 312 312 309 308 306 304 305 307 310 316 314 315 315 313 313 316 317 316 316 317 317 317 319 318 317 319 324 325 323 323 321 321 320 318 320 325 326 324
305 305 305 303 303 303 306 309 308 308 307 308 308 306 307 308 313 314 316 316 316 314 313 316 318 317 316 317 316 317 317 319 319 323 327 326 325 322 322 321 319 318 323 323 322
306 306 304 304 303 304 306 307 306 306 307 308 308 309 307 308 310 312 313 315 316 316 315 314 316 317 316 318 317 317 317 320 319 322 323 325 322 320 321 321 322 319 316 320 319
305 306 303 304 305 304 305 305 307 307 307 307 309 309 307 309 310 309 314 315 319 319 321 318 315 317 316 316 316 316 318 319 321 325 323 320 323 319 319 318 319 317 315 315 316
305 304 304 303 305 304 304 305 305 307 307 307 308 308 308 308 310 310 314 321 320 321 321 321 322 318 318 316 316 316 317 318 320 321 323 323 323 319 317 317 317 318 315 314 318
303 304 305 304 303 304 303 304 305 305 306 306 307 307 307 307 308 310 313 319 319 320 319 321 324 323 320 317 316 319 318 317 319 319 319 321 321 322 320 319 318 317 316 314 315
302 302 304 307 305 305 304 304 305 305 306 307 307 307 307 308 308 308 310 319 320 319 321 323 324 322 322 321 317 317 319 319 319 319 320 319 321 321 319 319 319 317 316 317 315
299 302 304 304 306 305 305 305 305 305 306 306 308 306 306 307 307 308 308 309 318 319 318 317 322 317 319 320 318 317 317 318 319 319 318 318 320 320 320 319 318 317 317 317 316
302 299 305 306 307 306 305 304 305 304 306 305 306 307 306 306 306 309 310 313 315 317 315 318 316 317 318 318 318 317 317 317 320 318 320 321 320 319 319 319 318 318 318 317 315

GFSSW_925_thetae_048.txt.gz
Theta_e
309 310 309 308 307 307 306 307 307 306 307 306 304 303 304 307 309 309 310 309 315 314 314 312 310 311 311 310 308 305 308 310 312 310 312 319 323 324 324 327 329 329 332 328 327
309 308 308 308 308 307 307 306 306 306 305 305 304 303 303 309 312 312 306 309 316 315 314 311 311 309 309 310 308 308 308 310 309 309 312 317 321 325 328 326 329 329 329 328 328
306 306 307 307 306 306 307 307 306 306 306 305 305 304 303 310 312 307 317 313 316 315 313 311 313 312 313 310 309 307 311 310 311 309 309 314 326 326 325 324 323 327 328 329 329
303 303 304 306 307 305 305 305 305 306 306 306 305 305 306 313 304 317 316 316 318 317 312 312 313 313 310 311 309 312 309 310 311 312 314 324 324 326 320 324 321 324 326 327 328
304 304 303 304 304 302 302 302 304 304 305 306 305 306 309 311 311 307 310 311 314 314 311 311 312 309 310 309 310 311 312 314 312 312 314 325 328 329 328 326 325 326 327 326 327
303 302 303 303 303 302 302 302 302 302 304 304 305 306 311 310 305 307 312 315 313 311 311 311 311 310 311 311 312 314 314 313 313 314 329 328 331 331 328 326 325 328 328 325 325
305 304 304 302 302 303 302 302 302 301 302 303 305 307 308 308 302 311 311 312 312 310 309 310 312 313 313 314 313 315 315 313 313 314 326 327 326 330 328 326 327 328 327 327 327
305 305 305 304 303 303 303 302 301 300 301 303 306 308 309 303 305 305 305 306 311 310 311 312 311 312 313 313 312 314 313 314 313 318 320 321 321 319 327 328 328 328 327 325 325
304 304 304 305 304 304 303 302 301 305 307 307 307 308 310 307 312 310 312 310 307 309 312 312 311 311 312 312 312 311 312 313 314 314 319 319 321 322 327 330 329 326 326 324 323
304 304 304 304 305 304 304 301 305 307 307 307 311 308 306 305 312 314 314 313 311 312 314 312 311 311 309 311 314 313 313 312 314 314 319 320 320 319 329 330 330 325 323 323 322
304 304 304 304 304 304 304 303 303 306 304 310 311 310 311 314 314 315 313 311 310 314 315 313 313 314 311 311 311 311 314 314 311 312 315 313 314 315 327 330 329 326 323 322 322
304 304 304 304 304 304 302 304 305 304 307 307 306 307 308 310 312 308 313 310 311 313 313 312 315 312 312 311 313 313 313 313 312 313 313 313 317 317 322 329 330 327 324 321 321
303 304 304 304 304 303 303 305 303 304 309 308 308 308 307 307 309 310 313 311 312 314 315 315 315 313 313 313 313 313 313 313 314 313 315 320 319 322 321 323 328 326 323 321 320
303 304 304 304 303 302 301 304 302 305 308 306 309 308 308 310 311 309 311 312 312 313 315 316 315 314 314 314 313 314 313 314 315 316 318 318 320 316 317 322 325 326 326 322 318
302 303 304 304 304 303 302 302 302 307 296 301 308 306 310 306 305 311 310 311 312 314 316 317 315 316 315 315 313 315 314 314 316 315 315 316 316 315 323 322 322 321 324 325 320
300 302 304 304 304 304 303 302 306 311 305 302 307 311 312 310 308 310 310 311 310 314 316 315 314 313 316 315 314 315 316 316 316 315 318 317 315 315 317 321 320 320 320 322 322
300 301 303 305 303 302 302 304 311 311 306 304 304 308 309 310 309 310 309 312 312 314 314 315 317 316 315 316 315 315 315 318 318 319 321 316 315 317 315 314 318 318 318 319 321
300 301 302 304 305 304 302 308 311 309 308 306 306 306 309 309 308 311 308 308 310 312 313 314 314 316 316 317 317 315 315 317 322 321 318 318 321 320 317 315 315 317 317 318 319
299 301 303 304 305 304 302 306 307 308 308 307 306 306 308 307 312 311 310 309 310 312 315 314 315 313 314 316 317 317 316 315 316 317 319 317 317 316 318 317 316 316 315 317 317
300 302 303 304 304 303 303 304 307 307 306 307 307 307 307 307 308 310 315 316 313 310 312 314 316 314 315 314 314 315 314 317 315 321 323 319 321 318 318 318 316 314 314 317 317
300 303 304 304 304 304 305 304 303 302 304 307 308 307 306 306 306 306 309 317 318 317 310 312 314 314 314 315 315 315 315 316 316 316 319 319 317 316 316 315 316 315 314 313 317
300 303 303 304 305 303 304 303 302 304 305 306 306 307 308 308 306 306 308 315 318 318 319 319 313 313 314 313 313 314 315 315 317 318 318 315 318 316 315 315 315 315 316 314 315
301 302 303 304 306 305 304 303 302 305 306 306 307 306 307 305 305 307 311 314 313 319 319 319 321 320 318 315 316 317 315 316 314 314 316 317 317 316 315 314 314 314 314 312 310
299 301 303 304 304 305 305 304 303 302 303 304 305 305 306 306 306 307 308 309 314 318 318 317 321 318 323 322 319 320 317 316 319 315 315 316 316 315 316 316 314 314 313 313 310
298 300 304 305 304 305 305 304 304 304 303 303 304 305 305 306 305 306 307 307 308 316 317 316 316 319 320 320 317 316 315 315 315 317 317 317 315 314 314 315 315 314 314 313 312
298 301 302 304 305 305 305 305 305 304 304 305 305 306 305 305 305 305 305 305 306 307 316 315 313 317 316 318 317 315 314 314 316 317 316 316 315 312 314 313 313 314 314 314 312
298 299 303 302 305 306 306 305 305 304 304 303 304 304 304 304 303 304 303 303 304 306 309 314 315 315 315 314 313 313 312 314 314 312 315 316 315 314 314 314 314 314 314 314 313

GFSSW_925_thetae_051.txt.gz
Theta_e
308 308 308 308 307 307 307 307 307 306 306 306 305 304 303 303 303 307 311 304 311 311 314 313 309 311 310 311 310 308 315 316 315 314 315 317 322 324 325 328 329 330 331 329 328
306 307 307 307 307 306 306 305 305 305 305 305 305 305 303 304 310 311 309 306 311 314 311 310 309 309 311 312 311 314 315 315 313 313 315 315 321 322 328 327 328 331 328 328 328
304 304 305 306 306 305 303 302 302 304 304 305 304 305 303 305 310 306 315 316 312 314 312 311 309 313 314 311 312 312 316 313 313 313 312 313 318 326 328 327 326 330 329 329 329
303 303 303 305 306 305 303 302 302 302 302 303 304 305 303 311 302 312 314 314 315 312 310 312 313 315 314 314 311 313 312 313 313 313 314 315 324 328 326 326 323 325 328 329 329
303 303 303 303 304 303 302 303 303 302 302 301 303 306 304 309 306 305 304 309 316 314 310 312 315 312 313 312 311 312 313 312 314 314 314 323 327 328 328 325 326 328 328 327 327
304 305 305 304 304 304 303 303 303 302 301 301 304 306 309 309 303 305 307 311 313 312 310 310 313 311 312 312 313 314 313 316 315 315 324 325 328 333 329 328 328 330 328 327 326
304 304 304 304 304 304 304 304 304 303 301 303 305 308 306 305 301 305 307 310 313 311 310 309 311 313 313 315 313 315 316 315 314 315 322 328 329 331 330 329 330 330 327 326 326
304 304 304 304 304 304 304 304 304 302 303 305 306 308 307 302 301 305 303 306 305 309 309 310 311 312 314 314 314 316 314 317 315 318 322 325 321 320 329 331 331 330 328 326 325
304 304 304 304 304 304 304 304 303 305 306 307 307 307 306 306 311 307 309 309 307 308 310 311 311 313 313 316 316 314 316 314 315 315 322 323 323 321 330 331 331 330 328 327 325
302 302 304 304 304 304 304 303 304 307 307 307 308 306 306 304 310 312 313 312 309 310 312 313 313 314 313 316 316 316 316 314 315 317 320 322 322 321 330 332 332 331 329 327 324
301 303 304 304 304 303 303 304 305 306 304 308 309 308 308 311 313 314 313 312 311 312 317 315 316 315 314 316 313 314 314 315 314 313 315 316 317 318 320 331 332 332 330 328 326
301 303 303 304 304 303 302 305 304 302 306 306 306 306 307 309 309 310 310 312 312 313 315 315 318 315 313 313 314 314 315 316 314 313 314 317 319 320 322 329 331 332 331 329 327
301 302 303 304 304 303 302 304 302 302 308 307 307 307 307 306 308 308 311 311 312 313 316 318 316 314 314 314 315 315 316 316 316 314 315 319 321 319 320 323 326 330 330 329 327
301 301 302 304 303 303 303 303 303 302 310 307 309 309 307 308 308 307 309 312 312 313 315 316 315 314 314 315 315 317 314 315 315 316 315 319 322 320 319 320 322 325 329 330 327
301 300 301 303 305 303 303 303 302 306 302 302 307 306 308 308 305 310 307 310 314 314 316 316 316 316 315 315 314 316 315 316 316 316 318 319 321 320 317 321 321 322 324 328 327
299 300 300 303 303 303 302 302 305 311 308 304 307 311 310 310 309 310 310 310 311 315 316 314 314 315 315 314 315 315 316 317 317 319 323 320 321 320 320 321 321 321 322 324 327
299 299 300 301 304 303 303 302 309 309 306 306 307 306 306 309 310 310 311 311 312 314 318 317 316 315 314 316 315 316 318 319 322 323 324 318 319 321 319 318 319 321 320 321 325
298 299 299 300 303 305 302 306 309 307 309 307 307 307 307 308 309 309 310 310 311 313 313 316 317 317 317 318 318 317 318 321 322 324 321 317 321 320 319 319 317 317 319 319 322
298 299 300 301 302 304 304 305 307 307 307 307 307 307 307 307 309 310 309 309 309 312 316 316 315 314 316 317 318 317 318 317 319 319 322 321 319 318 319 320 319 319 319 321 319
299 299 300 301 303 303 305 305 304 306 306 306 308 306 307 307 306 307 313 317 317 312 312 315 317 314 314 315 316 318 317 320 319 321 322 320 321 321 320 320 321 320 320 319 318
299 300 301 302 304 304 306 304 303 302 302 305 307 307 308 308 307 306 308 313 314 319 311 313 315 315 315 316 316 317 318 317 318 320 322 322 321 320 321 320 320 319 320 320 319
299 299 301 304 303 304 306 304 302 302 304 305 306 306 308 306 306 307 308 315 310 319 320 319 314 316 314 314 313 314 316 317 321 320 320 320 321 317 318 318 318 319 320 318 318
300 299 300 303 304 304 306 305 302 304 304 306 307 306 307 306 306 306 309 311 309 318 321 319 319 321 319 315 318 320 319 318 318 316 319 321 318 316 317 317 318 318 319 319 317
299 301 301 302 303 304 306 305 304 301 302 304 304 305 306 307 306 307 307 308 308 313 318 317 320 319 320 319 319 319 316 315 317 322 320 319 319 317 317 317 317 318 318 318 318
299 299 301 303 302 304 304 306 304 304 302 303 304 305 306 307 306 306 306 306 306 309 316 316 316 318 316 316 318 317 315 314 315 316 317 316 319 318 318 318 318 317 317 317 317
298 301 301 302 303 303 304 306 305 304 304 304 304 305 305 306 306 306 305 305 306 306 313 310 315 317 317 317 317 316 314 314 314 314 315 317 318 317 317 315 315 316 316 316 317
297 298 301 301 301 303 304 305 305 304 304 304 304 304 305 305 305 305 305 305 305 305 306 308 315 315 315 314 313 314 314 314 313 313 314 314 313 315 316 316 318 317 316 316 317

GFSSW_925_thetae_054.txt.gz
Theta_e
305 307 307 307 306 305 305 304 303 302 304 305 305 304 304 303 300 309 312 309 310 309 315 318 315 313 315 317 317 317 317 317 316 320 320 319 321 323 326 326 330 331 330 332 330
306 307 307 307 305 305 304 303 302 302 302 303 303 305 304 303 309 308 310 314 306 311 315 316 316 314 316 316 317 317 318 318 317 319 319 320 320 320 324 325 328 331 331 330 329
304 305 305 306 306 305 303 302 303 303 302 302 302 303 304 305 310 309 311 313 312 313 314 315 313 313 314 316 317 317 318 317 317 318 319 320 320 320 324 324 326 329 331 331 330
304 304 304 305 306 304 304 304 303 303 303 302 302 304 304 311 305 312 305 312 313 317 312 313 314 313 313 315 316 316 316 316 317 318 319 320 321 324 325 326 327 328 328 330 330
303 304 305 305 306 304 304 304 304 304 304 303 303 306 308 308 304 304 303 307 317 316 313 316 314 313 314 315 317 317 317 317 317 317 319 319 322 324 325 327 327 329 330 330 331
303 304 304 304 304 304 304 304 304 304 304 304 306 306 308 308 304 304 304 309 313 316 317 315 315 315 316 316 317 317 317 317 318 319 319 321 321 329 324 329 330 331 331 330 329
305 303 304 304 304 304 304 304 304 304 304 304 306 306 308 307 305 305 305 306 310 312 314 316 315 314 315 316 316 316 317 318 318 319 319 322 322 328 325 331 332 332 330 329 329
304 303 303 304 304 304 304 303 303 303 303 306 307 307 306 305 304 304 306 306 305 310 312 312 313 314 316 316 317 317 318 319 318 318 319 324 321 321 327 331 331 332 330 329 328
303 302 303 304 304 304 303 303 303 305 306 307 308 309 306 305 308 309 308 307 307 307 311 313 313 315 315 317 318 318 319 319 319 318 320 325 321 323 327 330 329 332 331 330 329
302 302 304 304 304 304 303 303 305 308 308 308 308 309 306 304 309 312 312 312 310 308 314 315 316 315 315 317 319 319 319 318 318 318 319 322 323 321 324 328 330 331 332 330 329
301 302 303 304 304 304 304 307 307 308 304 306 308 308 308 311 311 313 314 314 313 312 315 317 318 317 316 316 317 317 317 317 316 317 317 319 320 320 322 325 330 331 332 331 329
301 302 303 303 304 303 305 307 304 303 305 306 307 307 306 307 309 311 313 315 316 313 313 319 319 318 317 317 316 316 316 317 316 316 316 317 319 321 322 325 329 330 332 332 330
300 301 301 302 304 304 305 307 304 304 307 308 309 308 308 307 307 308 313 313 315 317 312 318 316 317 318 317 317 317 316 317 317 317 317 318 319 320 321 324 327 329 330 331 332
300 301 300 302 304 305 306 305 305 304 312 307 308 309 309 307 307 306 307 314 313 314 314 315 314 316 318 317 317 318 317 317 317 318 317 319 321 321 321 321 324 326 331 331 332
299 299 300 301 305 306 305 305 304 307 308 304 308 308 309 308 307 309 308 307 310 314 314 317 314 316 317 317 316 317 316 318 318 319 318 318 319 319 320 321 321 321 325 330 331
298 299 300 303 304 304 304 305 307 314 307 305 307 308 310 309 308 310 309 308 308 313 316 316 314 314 315 315 316 316 317 318 319 318 321 318 319 319 320 322 321 320 322 326 329
297 298 300 302 305 304 304 306 312 307 307 309 308 309 309 309 311 310 311 309 309 309 314 316 315 317 316 315 316 316 318 321 321 321 321 319 321 320 321 321 321 321 321 325 327
297 298 300 301 303 304 305 308 309 305 308 309 309 308 309 309 311 310 312 310 310 309 309 312 315 316 317 317 318 318 319 320 321 323 322 321 323 322 321 321 322 321 321 323 327
296 299 300 301 302 304 305 308 304 306 307 309 308 308 308 308 309 311 312 312 310 312 311 311 312 315 317 317 317 319 320 319 320 322 324 323 322 321 320 321 321 322 322 323 325
299 299 300 301 304 305 305 304 305 307 308 308 309 309 309 309 308 309 314 315 317 312 314 315 316 315 317 318 318 320 319 321 321 322 323 321 322 322 321 321 321 321 322 322 323
299 301 300 302 304 305 306 305 305 304 305 307 309 309 308 308 308 307 311 313 313 320 315 314 317 318 316 318 319 320 321 319 321 321 323 323 323 321 322 322 322 322 321 322 323
299 301 303 303 305 304 305 304 304 304 305 305 306 307 308 308 308 308 307 312 311 315 318 313 316 318 317 316 317 319 319 320 321 322 322 325 323 321 320 319 320 321 321 321 322
300 299 301 303 304 304 304 305 305 305 305 305 307 307 307 308 308 307 308 310 309 313 318 319 316 315 316 316 317 319 319 319 320 320 323 326 322 319 318 318 319 320 321 321 321
300 301 301 303 303 305 304 305 305 305 305 305 306 307 307 308 308 307 307 307 308 309 313 317 318 317 314 315 318 321 318 317 320 323 321 321 320 319 319 318 319 320 321 321 321
298 300 301 303 302 302 304 305 306 305 304 305 305 306 307 309 308 308 307 308 307 308 314 316 317 316 315 315 314 316 317 316 317 318 319 319 317 317 316 315 318 319 319 320 320
298 299 301 301 302 303 303 304 305 305 305 305 305 306 306 308 309 308 307 308 308 308 311 313 313 314 313 312 315 316 314 314 315 314 315 316 318 316 315 315 315 315 317 319 319
296 297 300 300 301 303 303 304 303 305 305 305 305 306 308 307 307 307 307 307 308 308 309 311 316 314 311 314 313 312 314 314 315 315 314 314 313 312 313 313 315 315 317 319 320

GFSSW_925_thetae_060.txt.gz
Theta_e
306 307 308 308 308 307 307 306 305 304 304 305 305 304 304 302 301 309 311 309 310 313 313 313 317 318 319 318 317 318 319 321 320 321 321 322 322 322 321 323 322 326 327 333 334
306 307 307 307 307 307 306 306 305 304 304 305 305 305 304 302 308 311 310 311 311 311 311 311 319 320 320 319 318 318 321 320 320 321 321 321 321 321 320 322 324 324 327 332 333
306 307 306 307 307 306 306 305 304 304 304 305 305 305 305 304 312 313 307 305 303 312 316 310 316 321 321 319 318 318 319 320 320 320 320 320 321 321 321 321 322 328 325 335 334
303 302 306 307 307 306 304 304 304 304 304 304 306 307 305 309 314 313 306 307 313 316 316 312 316 319 320 320 318 318 318 319 319 319 319 319 320 320 321 322 322 326 326 328 332
301 302 305 306 305 303 303 304 304 304 304 304 305 307 308 308 311 311 311 308 314 318 316 316 319 318 319 320 318 318 318 319 319 319 318 319 319 321 321 321 323 327 328 329 330
303 303 304 303 302 302 303 304 303 304 304 304 305 307 309 310 309 311 310 309 308 317 318 317 317 317 318 318 318 318 318 318 318 319 319 318 318 319 320 321 322 327 329 330 330
303 302 303 302 301 302 303 303 303 304 304 304 307 308 309 308 308 308 310 312 312 307 307 309 314 320 319 318 317 317 316 318 319 319 319 319 318 319 320 320 322 326 329 331 330
302 301 301 301 301 301 303 303 303 304 306 306 307 310 311 308 308 308 308 309 310 312 309 307 310 316 318 318 317 317 319 319 319 320 320 319 320 320 321 322 323 325 329 331 330
301 300 300 300 302 301 302 303 305 307 306 309 311 311 312 309 308 309 307 311 312 314 311 309 308 314 316 318 318 318 319 320 319 320 320 320 321 320 321 324 325 325 328 331 331
302 301 299 299 301 301 302 305 309 309 309 311 312 312 313 310 310 311 312 310 312 315 313 312 309 311 316 318 319 318 321 321 321 321 322 321 321 321 322 324 327 325 325 330 332
301 301 299 299 301 301 303 307 310 312 311 312 310 313 312 309 310 310 314 312 315 316 316 312 310 310 316 317 318 319 320 322 323 323 322 322 321 320 321 322 325 326 326 328 332
300 298 298 298 299 301 305 310 308 308 310 308 309 309 309 309 309 310 314 316 317 320 318 318 313 309 312 317 317 318 320 321 322 321 320 320 320 320 320 322 322 323 327 328 330
298 298 298 298 298 305 308 307 308 308 310 310 310 310 311 311 310 309 309 315 315 317 321 321 316 314 313 313 315 318 320 320 320 321 321 320 320 321 319 320 321 324 324 328 329
298 297 298 297 302 305 307 307 308 308 312 315 312 312 312 310 311 309 309 312 313 317 319 321 319 317 318 315 315 318 319 319 320 321 322 321 322 322 321 321 321 323 324 325 327
297 297 297 297 301 303 307 306 308 308 318 308 311 311 312 311 311 310 308 309 312 315 319 323 319 320 319 318 317 319 321 321 321 321 322 321 322 321 322 322 322 323 325 325 326
297 296 297 299 301 305 306 307 309 316 320 308 310 311 310 312 312 310 311 308 308 309 316 316 316 318 317 316 317 317 320 321 321 322 324 321 322 322 322 322 322 323 323 325 325
297 297 297 299 301 302 303 307 317 316 309 309 310 309 309 310 312 312 313 311 309 310 311 313 314 313 317 319 316 317 319 322 323 325 326 322 323 324 323 322 323 323 322 324 327
297 297 298 298 299 302 304 310 313 309 310 309 309 309 308 311 313 313 314 314 311 310 312 318 317 312 315 318 317 317 319 323 327 330 325 322 323 323 323 322 323 322 323 325 327
297 298 299 299 300 302 305 311 308 309 308 308 308 306 306 310 311 313 314 316 314 310 313 316 316 314 317 318 316 318 321 319 324 323 327 328 324 323 323 322 321 322 322 322 324
298 299 299 299 302 303 306 306 308 307 307 308 306 305 308 310 310 312 317 317 317 313 311 312 315 314 314 316 317 318 318 321 320 324 328 328 326 324 325 323 322 322 323 324 325
298 299 299 301 302 306 306 306 306 306 306 308 308 306 309 309 310 311 313 317 316 316 316 313 314 315 315 315 318 318 319 321 322 321 328 330 329 325 325 325 325 325 325 325 325
298 301 301 302 306 304 305 306 305 306 306 305 307 308 309 310 310 310 311 312 312 313 318 319 316 316 318 317 316 316 318 319 325 327 324 329 328 326 325 322 322 323 323 324 324
300 300 299 303 306 305 304 304 304 305 305 306 306 306 307 307 308 309 310 311 310 310 314 313 317 319 317 319 319 317 317 319 320 325 331 333 330 325 322 321 321 320 321 322 322
299 301 301 305 303 305 305 305 305 304 304 305 306 307 306 307 308 309 309 310 310 309 313 310 319 320 319 322 321 321 320 321 322 328 330 330 328 325 324 322 320 320 318 317 318
299 300 301 304 304 303 304 307 306 305 305 305 306 306 306 307 307 308 308 308 309 312 311 315 321 320 319 319 318 319 321 320 322 325 328 325 324 324 323 323 319 318 316 316 317
297 299 299 300 302 304 304 304 305 306 306 306 305 305 306 306 307 307 308 312 310 312 311 315 317 317 319 319 317 317 320 323 322 319 320 322 323 321 320 317 317 316 316 317 319
296 297 300 301 302 302 305 303 303 304 305 308 307 307 306 308 309 310 310 311 311 312 312 313 315 319 320 317 317 318 316 320 319 317 317 318 318 317 316 315 315 317 317 320 320

GFSSW_925_thetae_063.txt.gz
Theta_e
307 308 308 307 304 306 305 304 304 304 304 305 304 305 306 305 304 306 307 307 311 313 311 313 312 316 317 318 316 316 315 314 314 317 318 319 321 320 319 320 323 324 321 336 335
307 307 307 307 307 306 305 304 303 304 303 304 304 304 306 306 307 309 309 309 311 311 311 310 309 316 314 316 314 314 312 314 315 316 317 317 320 319 319 322 321 322 334 334 332
304 305 306 307 307 306 303 302 303 303 303 303 304 304 306 305 309 311 306 307 306 307 307 313 311 312 317 316 316 315 315 315 316 317 317 317 316 318 318 319 321 326 335 333 331
303 305 305 306 306 306 305 302 302 303 303 303 304 306 306 308 310 309 310 310 308 316 319 317 313 309 315 319 317 316 315 316 316 317 317 316 315 318 318 320 324 322 332 333 331
304 303 305 305 305 305 300 300 302 302 303 303 304 307 307 308 309 306 308 310 308 316 316 314 311 313 316 318 318 318 317 316 316 316 317 316 315 317 317 317 321 326 326 326 329
304 303 302 301 302 301 299 300 301 302 302 303 306 307 306 308 304 306 308 309 309 309 314 315 315 315 316 317 317 317 317 316 316 315 316 317 315 317 317 317 316 325 326 326 326
304 303 301 300 300 299 299 299 301 301 302 305 307 308 307 307 305 306 308 308 310 312 307 308 307 308 314 318 316 317 316 315 315 314 315 317 316 314 315 316 316 324 327 326 327
303 303 301 300 299 297 298 299 300 304 305 307 307 309 309 306 307 309 308 308 308 310 310 311 308 307 314 316 318 317 315 315 316 316 317 315 318 315 314 315 315 315 327 328 327
300 301 300 299 299 297 298 299 307 309 308 308 309 310 313 311 310 309 309 307 309 311 310 312 309 307 311 315 317 317 316 316 317 317 317 316 318 316 316 317 317 319 324 327 327
302 301 299 298 298 297 299 305 308 309 310 310 311 312 312 312 310 310 310 312 309 312 315 312 309 306 310 314 318 318 317 316 317 318 318 317 317 317 316 319 322 320 318 327 327
300 299 298 297 298 297 299 305 306 308 306 309 312 314 312 310 307 308 312 312 314 316 318 313 309 308 308 313 315 317 318 318 316 318 322 320 318 317 317 317 321 319 319 323 328
298 298 297 297 298 297 306 306 308 308 308 308 308 308 308 308 309 308 309 314 317 319 318 318 314 312 310 310 316 317 317 317 318 319 321 320 318 317 316 315 316 321 319 319 327
298 298 297 297 297 305 304 306 308 307 307 308 309 309 310 310 310 309 307 314 316 318 320 321 317 315 315 311 310 316 317 318 319 319 318 319 316 317 318 317 316 317 321 321 328
299 298 296 297 301 299 302 306 307 308 310 311 311 311 311 310 310 310 308 307 314 315 320 321 318 317 318 320 315 312 314 316 317 318 319 318 318 318 319 318 317 316 317 323 328
299 298 296 296 297 300 304 305 306 308 313 315 312 311 312 310 311 308 308 308 310 317 319 320 320 320 319 318 318 319 316 317 318 320 318 319 318 317 317 318 317 315 318 318 327
299 298 297 297 299 300 301 303 307 313 314 308 311 311 312 311 312 310 308 308 308 309 316 316 317 319 320 319 319 318 319 319 318 320 323 321 319 317 318 319 320 319 319 319 320
298 297 297 298 298 298 300 304 310 312 311 309 310 310 309 309 312 311 311 307 305 306 308 312 316 315 317 319 318 318 320 322 324 324 323 320 320 319 319 320 320 320 318 319 319
297 297 296 297 298 298 300 307 310 310 312 310 309 309 309 308 311 312 312 311 306 307 310 312 320 314 314 314 320 319 318 323 326 326 324 320 321 320 319 320 319 319 319 319 321
296 297 298 298 299 299 303 306 307 306 307 309 309 308 307 307 310 312 313 313 313 309 310 315 317 315 313 315 317 320 320 317 321 323 326 326 324 319 319 319 318 319 319 322 322
298 298 298 298 300 301 304 303 304 305 306 307 308 308 306 309 310 310 316 318 319 315 310 312 315 314 314 315 317 318 317 322 323 329 330 325 325 327 323 320 321 319 318 319 319
297 297 298 299 299 302 303 303 302 303 304 306 307 308 308 309 309 310 315 317 315 315 314 316 314 314 314 316 318 319 321 322 323 323 326 328 328 324 321 321 320 321 320 318 318
297 296 300 300 302 303 302 302 302 302 304 305 306 308 308 308 310 310 310 314 311 312 316 314 318 316 312 312 314 317 319 322 328 328 326 324 329 324 322 318 318 318 317 318 319
298 296 297 300 304 301 302 302 302 302 304 305 306 306 306 306 307 308 309 312 310 310 312 310 317 319 318 317 317 318 316 319 320 322 328 330 327 326 324 322 317 314 314 316 319
297 297 297 298 299 303 304 304 303 303 303 304 304 304 306 306 306 307 309 310 311 311 312 310 315 320 321 321 321 322 321 317 318 324 325 328 329 327 325 324 321 314 314 318 318
296 297 298 301 299 301 302 303 304 307 305 304 303 304 305 307 307 308 308 308 309 313 312 314 317 318 317 317 320 320 320 320 321 321 328 327 328 325 325 324 321 314 317 319 320
295 295 296 298 299 301 303 302 303 302 306 306 306 305 304 306 307 309 311 311 313 312 313 313 315 316 317 317 317 320 319 320 322 323 324 325 326 325 322 322 321 317 319 319 319
295 295 296 298 299 299 300 302 303 304 303 305 307 308 308 309 308 308 308 310 310 311 312 314 314 315 318 314 318 318 317 322 321 321 322 325 323 323 323 320 318 317 317 318 317

GFSSW_925_thetae_066.txt.gz
Theta_e
307 307 307 307 307 307 307 303 302 302 303 305 303 303 305 305 302 302 306 306 307 308 310 312 312 315 316 315 315 312 314 312 314 314 316 315 316 315 318 324 324 322 329 332 336
307 306 306 306 306 306 306 304 301 301 303 305 305 305 303 304 305 306 309 309 308 310 310 309 309 310 313 315 316 314 314 316 313 313 314 314 314 314 316 320 321 335 335 334 334
306 306 306 306 306 306 304 301 299 301 305 306 306 307 306 304 305 308 307 309 307 307 310 312 310 308 314 314 313 312 318 314 313 313 312 314 315 314 315 317 319 333 336 334 332
304 304 305 305 305 305 303 301 298 300 304 304 306 308 306 305 298 309 307 307 308 312 317 318 315 308 308 316 315 316 315 315 315 315 314 314 315 314 314 316 319 331 333 330 330
304 305 304 304 304 303 299 298 298 299 301 302 306 308 306 306 307 302 306 306 308 311 317 314 313 309 310 312 314 317 318 317 316 315 315 314 314 315 313 314 320 330 331 330 329
304 304 303 302 303 301 298 296 297 298 299 301 306 307 306 305 303 305 306 307 308 311 310 314 311 308 312 314 314 316 317 317 316 316 314 314 313 312 314 313 322 331 329 331 328
304 302 301 301 300 299 298 296 297 298 302 305 306 308 306 305 302 303 305 308 308 308 310 309 308 306 308 314 316 316 315 315 315 313 313 313 313 313 314 313 313 324 323 325 327
302 301 300 299 298 298 297 296 300 307 306 307 307 308 308 304 307 309 308 308 308 307 309 309 310 306 308 313 315 317 315 315 315 314 314 312 315 315 314 312 312 316 324 325 325
301 300 299 298 297 297 296 301 307 308 308 308 308 308 311 311 311 309 309 308 307 310 311 312 310 306 307 313 314 316 316 316 316 315 315 314 316 316 314 313 312 311 323 325 325
300 299 298 297 297 297 298 307 308 311 310 309 310 311 311 312 309 308 308 308 307 312 314 311 309 305 305 311 318 317 317 315 315 315 315 316 318 317 316 312 314 312 317 326 326
300 298 298 297 297 296 302 307 307 306 306 307 312 313 312 311 309 307 307 310 314 315 316 313 310 312 305 308 313 315 316 316 316 315 316 316 317 319 318 313 313 316 318 325 327
300 298 298 297 297 297 304 306 307 308 308 306 307 307 308 308 308 308 308 310 315 316 317 317 315 312 309 308 310 314 316 317 316 316 317 317 318 316 316 315 315 318 316 324 325
299 298 298 297 296 301 299 303 303 307 306 307 307 307 307 307 307 308 306 312 315 318 318 319 318 317 313 312 312 311 312 316 317 316 317 318 318 316 315 315 314 317 318 320 326
297 298 298 297 299 297 301 302 304 307 309 309 310 311 309 309 309 308 307 312 314 316 318 319 318 318 318 316 316 320 311 311 315 317 320 318 321 318 316 316 316 315 315 317 326
297 299 298 296 298 299 300 300 304 307 306 310 311 310 310 310 309 308 307 306 308 317 317 317 319 320 319 317 317 318 320 319 319 318 317 319 318 318 315 317 316 315 312 316 325
296 298 298 297 297 297 298 301 306 310 308 310 311 311 311 310 311 307 307 307 307 309 316 315 317 318 317 318 318 320 320 320 317 317 321 320 320 319 316 318 318 317 315 317 325
297 297 298 298 297 296 298 301 306 309 306 310 310 311 311 312 311 310 308 306 306 306 307 308 314 316 318 320 318 319 321 323 325 322 324 321 321 321 318 317 318 318 317 316 326
298 296 296 295 295 296 298 304 307 306 308 308 307 308 308 308 310 311 309 306 305 304 307 308 312 311 318 318 320 319 322 324 330 328 324 320 321 319 318 318 317 317 315 317 326
297 296 297 295 296 298 300 299 303 303 305 306 306 307 306 307 307 311 311 311 308 304 307 311 315 312 315 316 316 319 324 320 322 322 326 325 322 321 319 317 317 316 318 322 326
297 297 297 296 296 299 301 299 302 302 303 303 306 308 308 308 309 309 312 317 319 315 308 310 314 312 313 315 316 318 319 324 326 329 329 325 323 326 321 320 319 318 317 321 327
296 295 296 297 297 301 301 299 300 300 300 304 305 306 307 308 307 310 316 317 315 315 314 315 313 312 313 315 318 319 322 321 322 325 329 328 330 326 323 318 319 320 320 320 320
295 293 296 298 299 301 300 300 301 300 301 302 305 306 307 306 307 307 311 313 310 311 315 312 316 319 315 312 313 318 321 322 326 326 324 326 328 326 324 320 316 320 320 319 319
298 294 295 296 300 298 300 301 301 301 301 301 305 304 304 305 306 308 309 311 309 311 311 309 314 319 316 315 313 317 318 321 322 322 327 329 328 326 325 324 322 317 319 319 319
297 294 292 295 296 300 301 302 302 302 302 302 303 304 304 305 306 306 307 311 310 310 311 309 313 318 321 322 319 322 321 319 322 325 324 324 326 327 325 324 321 318 318 319 318
295 293 294 298 299 299 300 300 301 302 303 303 304 304 303 304 306 306 308 310 311 313 312 311 312 317 316 316 315 318 321 320 322 321 324 323 324 327 326 321 321 320 319 318 316
295 291 294 295 298 298 299 300 301 303 302 303 305 305 306 307 306 307 310 309 312 311 311 311 312 314 315 314 312 315 320 320 321 323 320 321 324 324 323 322 320 319 317 316 315
294 295 294 294 295 295 298 299 299 299 303 303 304 304 306 307 308 307 307 308 309 309 311 312 313 311 314 314 313 318 317 319 320 322 323 326 323 323 321 320 318 317 315 314 312

GFSSW_925_thetae_069.txt.gz
Theta_e
306 307 307 307 306 306 306 306 304 301 302 306 305 305 307 307 304 305 305 302 308 307 309 310 311 313 314 314 313 308 312 310 313 314 313 314 313 312 314 318 320 322 333 331 335
306 306 306 306 306 306 306 305 300 299 301 301 301 306 307 307 307 307 304 308 308 306 309 310 309 311 312 314 314 314 312 312 311 312 313 312 312 313 314 314 315 330 333 334 335
306 305 305 305 305 305 304 302 300 299 298 300 303 306 308 305 305 301 308 307 308 309 310 312 309 307 312 312 314 313 316 313 313 313 312 312 313 313 313 314 315 325 334 334 333
304 305 305 305 305 304 304 300 298 300 299 299 303 306 307 306 298 308 308 306 305 309 313 318 314 309 306 313 313 314 313 314 315 314 312 313 312 312 311 314 313 314 332 333 332
304 303 304 304 304 303 301 299 297 296 296 298 304 306 306 304 303 301 304 305 307 312 318 317 313 310 307 308 312 315 316 315 315 314 313 313 312 313 313 313 310 324 332 332 331
304 303 303 303 302 301 300 297 296 296 297 301 305 307 306 306 302 303 305 305 307 310 314 313 313 308 308 311 312 314 314 315 316 317 315 315 314 311 313 311 316 331 331 330 329
303 303 302 301 300 299 298 296 296 302 303 305 306 307 307 306 303 305 307 307 307 308 308 307 308 306 306 310 313 314 314 313 313 313 312 313 311 309 311 311 317 330 330 328 328
303 301 300 298 298 297 296 297 305 307 307 307 307 308 309 306 309 310 309 307 307 307 306 309 309 306 305 308 312 316 315 316 314 313 313 312 315 313 312 312 310 324 328 329 328
301 301 299 298 298 297 297 306 307 309 308 307 308 308 309 310 311 309 307 308 307 307 310 310 309 307 306 309 312 314 316 315 315 314 313 312 314 313 313 313 311 310 320 324 328
302 300 299 298 297 296 303 306 308 310 309 309 310 310 310 311 309 310 306 307 306 311 312 311 307 306 303 309 314 316 316 314 315 314 314 314 313 315 315 314 314 312 312 322 325
301 300 299 298 297 296 303 306 306 307 307 307 310 312 311 311 308 307 307 309 313 313 313 313 311 311 306 307 311 314 314 314 314 316 314 314 313 314 315 314 312 311 308 322 324
297 298 298 298 297 299 302 304 302 301 306 307 307 306 307 308 309 307 307 309 314 313 316 316 314 312 310 308 307 308 311 315 315 316 315 313 314 314 315 315 313 313 311 314 323
297 297 298 297 296 297 299 301 299 300 306 305 305 306 306 306 307 306 306 308 314 316 317 315 316 316 314 312 312 311 309 313 316 315 314 314 315 316 317 314 313 312 313 317 323
297 297 298 297 296 296 300 299 300 302 307 306 309 309 308 307 307 306 306 312 314 315 317 317 316 318 318 318 315 314 311 315 311 311 315 315 319 317 317 316 315 314 313 315 323
297 297 298 297 297 296 298 296 301 306 306 305 312 309 309 309 308 307 306 306 314 315 316 315 318 320 318 318 317 316 320 320 319 318 317 317 317 317 316 316 315 314 312 312 322
297 297 297 297 297 296 296 298 304 308 304 307 310 310 310 309 309 306 306 306 305 309 315 314 315 316 316 317 316 316 320 319 319 317 319 316 318 319 319 318 317 316 315 311 319
297 298 297 296 296 295 295 299 304 308 303 308 308 308 311 312 310 307 306 306 306 307 306 307 310 315 317 318 317 318 322 323 322 320 320 318 319 319 319 317 317 317 316 312 317
297 297 296 296 295 295 297 302 303 300 305 306 305 305 310 311 311 309 306 305 304 304 305 307 307 313 317 316 318 317 323 325 325 326 323 320 322 320 320 318 317 316 316 315 314
296 295 295 295 296 297 298 301 299 301 304 303 304 308 306 307 306 310 308 307 306 303 305 308 312 310 316 316 317 321 322 321 324 324 323 323 322 321 319 318 319 315 314 314 318
296 296 295 296 297 298 299 298 299 301 300 300 305 306 306 306 306 306 310 313 316 306 306 309 312 310 312 315 316 319 320 324 325 329 327 325 328 329 323 319 320 320 318 321 324
295 293 296 298 297 299 298 297 299 299 300 301 305 306 306 306 306 307 312 316 315 314 308 312 312 310 313 316 319 321 324 320 323 326 328 327 332 326 326 322 319 320 320 319 321
294 289 296 296 298 296 296 298 299 300 300 301 302 304 306 305 306 307 309 313 310 312 315 312 316 318 317 312 315 317 320 322 325 326 326 328 329 325 324 320 318 319 319 319 321
294 292 295 295 290 299 297 299 299 299 299 300 302 303 305 304 305 307 307 311 309 310 309 308 313 317 314 314 316 319 320 320 321 323 325 328 326 325 324 321 318 319 318 318 318
296 291 289 293 294 296 296 299 299 300 302 302 302 302 303 304 305 306 307 309 310 310 311 309 312 315 315 319 318 320 318 321 323 325 324 324 328 326 323 323 319 320 316 317 317
295 293 292 287 296 296 297 299 301 301 301 301 302 303 305 306 304 305 307 309 311 312 310 307 310 315 314 313 314 316 317 320 323 322 325 320 321 323 322 322 320 320 316 316 314
294 291 292 294 296 297 297 299 299 298 298 303 302 303 304 306 307 308 308 308 310 310 312 311 310 312 312 314 311 310 312 318 321 321 322 321 321 323 320 319 320 320 316 315 313
294 294 292 293 294 294 295 296 298 297 298 299 300 302 303 304 305 306 306 306 308 309 310 311 311 310 311 310 310 312 315 314 320 319 319 325 321 323 323 320 320 316 314 312 309

GFSSW_925_thetae_075.txt.gz
Theta_e
305 306 306 306 306 305 305 305 305 304 304 304 305 305 305 306 306 307 306 302 304 305 305 310 311 313 312 313 311 308 313 313 312 312 313 313 314 313 313 314 314 316 321 330 333
305 305 306 306 305 305 305 304 304 303 304 304 304 305 305 306 307 306 303 301 302 307 309 309 310 313 315 314 314 314 314 313 311 312 312 313 313 314 314 315 315 315 323 333 335
304 304 305 305 304 304 304 304 303 303 303 304 304 305 305 306 304 301 306 306 307 306 309 309 309 313 313 314 315 315 314 312 312 312 311 313 314 314 314 315 316 316 316 325 334
304 304 304 304 304 304 303 302 302 302 303 302 304 305 306 306 300 307 306 305 305 308 311 312 308 308 309 310 312 313 314 314 313 313 314 314 315 315 315 316 316 316 315 314 321
304 304 303 303 303 303 302 301 300 299 301 302 304 306 306 306 305 301 306 305 308 311 314 315 310 308 309 307 308 312 311 312 313 314 314 314 315 315 315 315 315 314 314 315 315
304 304 303 303 303 302 302 298 295 299 303 304 305 306 306 306 303 302 303 304 305 313 314 314 314 311 311 309 309 310 311 311 312 313 313 314 315 315 316 315 314 314 315 315 319
304 303 303 302 302 299 298 295 299 303 305 306 307 306 307 307 304 304 303 305 306 308 312 311 311 307 307 307 308 310 312 313 313 313 314 316 317 317 316 317 316 315 314 315 319
302 302 302 300 298 297 296 298 302 304 308 308 309 306 308 306 306 307 307 308 309 306 307 307 307 307 307 307 308 311 313 314 315 314 314 315 313 315 314 314 315 315 314 313 318
301 301 301 298 297 296 297 303 305 308 308 308 307 307 308 307 310 310 310 307 306 307 306 306 307 308 306 307 309 311 313 315 315 314 315 314 317 316 313 313 314 315 315 315 318
300 300 300 299 297 296 301 304 308 309 308 309 307 308 307 310 310 309 307 306 306 307 310 310 309 308 306 309 310 311 313 315 315 315 314 315 315 314 314 315 316 316 316 316 316
299 298 298 297 296 297 302 301 299 302 299 302 305 309 304 305 306 307 307 307 312 311 309 311 311 310 309 309 309 309 310 310 310 311 312 313 315 316 316 315 315 316 315 316 315
297 296 297 296 296 299 299 298 297 296 300 301 301 302 303 303 305 306 307 307 313 313 315 315 314 312 310 309 308 309 310 311 310 310 310 311 312 315 315 315 315 317 317 316 316
297 296 297 295 297 296 297 295 295 296 301 303 304 304 305 305 306 306 305 306 312 312 315 313 313 314 313 315 315 315 315 315 314 313 313 312 313 313 313 315 315 315 315 316 315
296 295 296 295 295 295 298 295 295 297 305 301 307 308 306 306 307 305 305 308 313 310 314 315 314 315 316 317 317 318 314 314 315 315 316 313 317 315 315 316 316 316 317 317 317
294 295 297 296 296 295 295 295 297 300 296 299 310 307 306 308 308 307 305 308 312 314 315 312 317 318 318 315 316 316 316 317 317 319 319 318 318 316 315 316 316 317 317 318 317
294 296 296 296 296 295 295 295 301 297 295 300 307 305 305 309 308 305 307 305 309 314 316 315 313 316 316 315 315 316 317 318 318 319 322 318 318 318 316 316 317 318 319 319 318
294 295 296 295 295 295 295 298 295 294 298 303 304 301 303 305 310 307 308 307 308 310 309 306 308 313 314 315 315 315 316 320 321 321 320 317 319 319 317 316 321 321 321 321 319
293 294 294 295 295 295 297 295 292 296 299 301 300 300 306 305 306 307 307 309 305 304 306 307 310 309 313 312 312 316 316 320 322 322 322 318 319 319 322 320 320 320 320 321 322
294 294 295 297 296 297 294 294 293 301 298 299 298 305 305 305 305 305 308 307 306 305 308 307 309 307 314 314 312 318 319 318 325 320 323 320 320 323 322 321 321 322 323 325 325
294 293 295 296 297 295 293 295 296 297 298 299 299 304 305 299 304 303 306 311 313 304 305 308 310 309 316 316 316 318 318 325 323 322 324 321 323 328 324 323 321 322 321 323 326
294 293 296 296 297 294 293 295 296 296 298 298 300 299 299 295 299 300 306 310 309 313 305 307 312 311 317 317 318 318 318 320 320 321 324 327 330 323 323 321 321 320 317 316 319
291 291 294 295 295 293 296 297 297 297 296 296 299 299 300 300 304 305 306 308 307 309 315 314 316 314 313 312 314 316 318 320 321 323 325 325 325 323 321 318 318 316 314 313 313
292 292 293 293 292 295 296 297 298 298 298 298 299 300 300 300 301 303 307 307 308 307 312 313 317 319 316 316 316 316 318 319 319 318 322 326 326 323 321 317 314 312 310 309 310
290 290 291 294 291 294 293 295 296 299 299 300 300 300 301 301 301 301 305 306 306 307 309 310 311 315 314 311 313 315 313 314 317 318 318 323 324 324 319 321 314 311 308 306 305
290 291 292 293 296 295 295 296 297 298 298 298 301 299 300 303 302 303 302 304 307 306 308 310 310 312 312 312 312 310 311 309 310 316 319 318 318 319 320 320 319 312 307 305 303
293 293 293 295 294 295 294 294 296 296 295 296 299 298 297 301 301 303 303 304 308 308 309 311 312 312 310 312 308 308 306 308 310 310 314 318 319 317 318 321 317 312 308 305 302
293 292 293 294 294 294 294 294 294 295 296 297 297 296 297 301 302 302 302 303 305 308 308 309 311 311 309 309 307 306 307 306 310 313 317 319 318 320 322 321 316 312 307 304 301

GFSSW_925_thetae_078.txt.gz
Theta_e
305 305 306 307 306 305 305 305 305 304 304 305 305 305 302 301 305 309 308 307 305 304 306 315 315 314 312 313 315 315 317 319 318 317 317 316 316 316 316 316 317 318 320 322 326
305 305 305 305 305 305 305 304 304 303 304 304 304 305 304 304 308 308 306 303 302 307 309 312 312 315 316 316 315 315 316 317 318 317 316 316 316 316 316 317 317 318 318 325 327
304 305 305 305 304 305 304 304 303 303 303 302 302 304 305 307 308 305 306 307 304 307 310 309 309 312 314 316 317 316 316 317 316 315 315 315 315 316 316 316 316 317 317 318 319
304 304 304 304 304 304 303 301 300 302 303 302 304 306 306 308 304 309 305 305 306 311 311 311 312 312 312 312 314 316 316 316 316 315 315 316 316 316 316 316 316 317 317 317 318
303 304 304 304 304 303 303 300 298 300 299 303 305 306 307 308 307 303 307 306 312 312 313 313 312 311 311 311 311 313 313 312 313 314 313 314 314 315 315 316 316 316 316 317 319
303 304 303 302 303 302 300 298 296 298 301 303 306 306 308 307 305 304 304 305 308 312 312 316 314 314 314 313 312 313 313 313 314 314 315 315 315 315 316 317 317 317 317 317 319
301 303 302 301 298 297 297 296 299 302 303 307 309 307 309 308 306 306 307 305 307 309 311 313 314 313 312 313 312 312 312 313 314 315 316 315 315 316 317 318 318 318 317 317 318
299 299 297 297 297 297 296 299 302 305 308 307 308 307 311 307 308 309 308 308 309 307 308 309 311 311 311 311 311 311 312 314 314 316 317 317 317 315 316 318 318 318 318 317 318
298 298 297 296 296 296 299 302 305 308 308 308 309 309 310 308 311 311 311 310 309 310 308 308 309 311 310 311 311 311 312 313 314 315 316 316 318 318 317 317 318 318 318 318 318
298 297 296 296 296 297 301 304 308 309 309 309 308 309 310 310 311 310 310 309 309 309 309 309 310 311 310 311 311 312 313 313 314 315 314 315 317 318 317 318 318 319 319 319 319
298 296 296 297 296 300 302 303 304 306 303 303 304 308 306 305 306 308 308 309 310 310 310 309 310 310 309 310 311 311 311 311 311 311 312 313 314 315 316 318 319 319 319 319 319
297 296 296 296 296 299 300 302 299 299 303 302 303 303 304 304 304 306 308 310 312 313 312 314 312 310 309 310 310 311 311 312 313 314 314 315 317 317 316 315 317 319 319 319 319
296 295 295 296 296 300 297 297 297 298 305 305 306 307 307 307 308 308 307 310 311 312 313 312 311 314 313 313 313 314 316 316 317 317 317 318 319 318 317 317 316 317 318 319 320
294 295 295 295 297 298 299 297 297 299 307 302 311 310 309 308 311 308 306 308 310 310 311 312 311 312 314 314 316 316 315 315 316 318 318 317 318 318 318 318 316 316 319 319 320
294 295 295 296 298 298 297 297 299 302 301 305 311 309 308 310 311 309 307 306 308 310 311 311 314 316 314 313 315 314 315 315 317 320 320 320 321 320 318 319 318 318 319 320 321
294 295 295 298 298 297 297 298 304 306 299 303 308 304 304 308 310 309 309 308 311 312 313 312 312 315 316 316 314 314 314 314 316 320 322 320 320 320 319 320 320 321 320 322 322
294 294 296 297 298 297 297 304 302 299 299 303 304 302 301 307 309 310 311 311 311 313 313 310 312 313 314 314 314 315 312 312 319 322 321 318 320 320 320 322 322 322 324 325 325
294 294 296 297 296 297 300 300 298 298 300 301 301 301 302 305 305 308 310 311 311 311 311 310 312 309 313 313 311 313 313 316 318 319 319 319 321 321 323 323 323 323 325 327 328
294 296 298 297 297 299 300 300 299 301 299 299 300 301 302 305 304 306 308 309 310 310 311 311 312 309 313 313 313 318 319 317 321 320 323 319 319 323 323 323 324 325 324 325 328
296 297 298 297 297 298 298 298 298 298 299 298 298 301 302 303 302 304 307 313 314 312 309 311 311 311 315 315 315 318 318 321 322 324 322 320 321 324 326 325 325 324 323 320 321
296 298 298 295 298 299 300 297 297 296 298 297 298 299 298 298 299 301 304 310 311 313 313 310 311 314 317 317 316 318 320 320 321 323 324 324 332 324 322 321 322 320 317 316 316
296 299 296 296 299 299 299 297 297 298 298 298 298 299 298 298 297 299 301 305 310 311 315 312 314 314 313 313 314 315 316 319 322 323 325 327 326 322 318 316 315 314 312 311 311
297 296 296 297 300 299 297 298 298 299 300 299 299 299 299 299 299 299 300 301 308 311 312 312 316 316 314 316 316 316 317 318 316 320 322 326 328 319 319 315 313 311 308 307 307
297 298 297 298 297 298 298 297 298 300 300 299 300 301 301 301 302 300 300 303 306 306 307 307 314 315 312 316 315 317 316 316 317 319 318 316 319 320 321 318 316 310 307 305 304
297 297 297 298 298 297 298 297 298 298 299 298 302 300 300 300 302 302 301 300 302 307 309 307 317 313 313 312 313 311 311 311 314 314 315 311 312 314 318 319 316 311 307 304 301
297 297 296 297 297 296 296 295 296 297 296 297 299 298 298 299 301 304 303 303 304 307 308 307 315 313 313 310 311 311 309 307 309 312 312 313 315 316 319 320 315 310 307 305 301
294 294 297 295 296 296 296 295 295 295 297 298 297 298 300 300 301 301 302 302 303 304 308 308 312 313 312 311 309 308 308 309 309 311 315 317 316 318 320 319 315 311 307 304 299

GFSSW_925_thetae_081.txt.gz
Theta_e
304 305 306 306 306 306 306 306 305 305 305 305 305 301 297 297 302 309 311 310 310 308 304 315 315 312 313 316 319 320 321 322 321 320 321 320 319 319 319 318 318 319 320 321 326
304 306 306 306 306 305 305 304 302 303 304 304 302 303 302 301 308 310 309 308 305 304 306 312 316 317 317 316 317 319 320 320 320 320 320 320 319 319 319 318 318 318 319 319 325
303 304 305 305 305 305 304 301 300 303 303 300 300 304 304 305 311 309 307 306 301 304 312 309 313 314 316 316 317 317 318 319 318 319 318 319 319 318 318 319 319 319 319 319 321
303 304 304 304 305 305 303 299 298 300 300 298 302 306 305 309 309 313 305 305 307 309 313 311 311 312 313 315 316 318 318 318 318 318 318 318 317 317 318 318 318 319 318 319 319
303 303 304 304 305 304 301 298 298 297 298 300 302 306 308 310 311 307 306 307 312 313 313 314 313 313 313 313 313 314 315 315 316 315 315 316 316 316 317 317 318 318 318 319 318
302 301 302 303 303 301 299 297 297 298 300 302 304 307 310 310 307 306 305 308 311 313 313 314 314 314 314 314 314 314 314 314 315 314 315 315 315 316 316 316 317 318 318 319 318
301 299 299 298 299 298 296 296 298 301 303 304 307 309 311 310 308 307 307 306 307 310 313 313 314 315 315 314 315 314 314 314 314 314 314 315 316 317 317 317 318 318 319 320 319
299 298 298 297 297 296 296 297 301 304 308 308 308 310 311 309 308 308 309 308 307 307 308 310 311 314 314 313 312 312 313 313 314 315 316 317 317 317 318 318 319 319 320 320 320
299 298 297 296 296 296 298 301 304 308 308 308 311 312 313 309 311 312 311 310 310 310 308 309 310 312 312 312 312 312 312 313 314 315 316 317 318 319 319 319 318 319 320 320 320
298 298 296 296 296 297 300 303 307 309 309 310 310 313 313 312 311 312 312 311 311 311 310 310 310 312 312 313 315 311 313 314 315 314 316 317 316 316 317 318 319 320 320 320 320
298 297 296 295 295 300 302 305 311 313 307 307 307 309 307 306 305 308 310 311 312 311 311 311 312 312 312 313 312 312 312 312 313 312 312 313 314 314 314 315 317 320 320 321 321
298 296 294 295 296 299 301 305 303 302 305 306 306 307 307 308 308 308 308 311 312 313 313 313 312 312 311 311 311 311 312 312 312 313 315 316 317 317 317 316 316 317 320 321 321
296 294 295 295 296 302 300 300 300 301 308 307 309 311 311 309 311 311 308 310 311 313 314 315 315 314 313 313 312 312 312 313 315 316 316 316 317 318 319 319 318 318 318 319 322
294 294 295 295 299 300 302 299 300 303 314 308 312 312 311 311 314 310 309 310 311 312 312 313 313 313 312 313 313 314 314 315 316 316 316 317 320 318 317 318 319 319 319 319 321
294 294 294 296 301 302 300 299 302 306 311 306 312 310 308 311 312 312 309 309 310 311 311 311 312 314 313 312 314 315 315 317 316 315 315 316 318 317 319 320 320 320 319 319 320
294 294 295 301 301 300 299 301 305 317 305 306 309 307 305 309 310 311 311 310 311 312 312 312 312 312 314 315 315 313 315 316 315 314 317 317 318 318 320 322 322 322 322 321 321
293 293 297 299 302 299 300 306 313 305 302 306 307 305 303 303 306 310 311 313 313 314 315 315 314 314 314 314 314 315 316 314 313 319 320 318 319 319 320 324 323 324 324 326 326
293 295 298 299 300 301 303 308 303 301 302 304 303 303 302 303 306 306 307 308 310 311 312 311 311 312 313 314 314 314 315 314 317 318 321 321 321 324 324 323 324 325 326 326 328
294 299 300 300 301 301 305 305 305 305 302 302 301 301 302 304 306 304 306 306 308 311 312 311 311 312 313 314 314 316 316 314 316 318 318 316 317 323 325 324 324 325 325 325 324
299 300 300 299 300 302 304 302 301 301 300 300 300 300 303 304 304 304 305 310 312 313 312 311 311 313 314 314 315 315 317 322 319 321 321 319 319 331 327 325 324 323 321 320 318
298 302 299 298 301 303 306 301 299 298 299 299 299 300 300 300 300 300 301 305 311 312 313 315 312 311 312 315 315 317 318 319 321 322 323 325 331 324 321 320 319 318 317 314 312
299 303 298 299 303 302 302 300 297 299 300 300 300 300 300 300 301 301 301 301 305 309 313 314 319 313 311 312 314 314 317 318 322 319 322 324 325 319 319 317 315 316 312 309 307
300 299 297 300 305 302 299 299 300 300 300 300 300 301 301 302 301 301 301 302 302 303 311 309 315 315 313 313 313 314 314 317 319 321 321 324 326 319 319 320 317 314 311 306 304
300 302 300 300 300 301 300 300 300 300 301 300 301 302 302 302 302 302 303 302 302 304 307 307 308 314 314 314 317 319 315 317 319 322 320 321 317 322 322 322 319 314 310 304 302
300 301 301 302 301 300 300 299 299 300 301 300 303 302 301 301 301 302 303 304 304 302 303 309 310 309 312 312 313 316 318 316 318 317 316 314 312 314 318 321 319 313 308 304 301
300 300 299 301 299 299 297 298 298 299 298 299 300 300 300 300 301 302 304 304 303 304 307 308 309 309 311 314 313 314 315 312 311 310 311 312 313 317 321 321 318 312 308 304 301
297 298 301 298 299 299 299 298 298 297 298 298 299 299 300 300 301 301 301 302 303 304 304 306 309 309 309 315 313 313 312 311 309 311 311 316 318 319 319 320 315 309 306 302 299

GFSSW_925_thetae_084.txt.gz
Theta_e
304 305 305 307 307 306 306 306 305 304 305 305 305 304 299 298 301 308 310 311 311 312 310 308 316 315 311 315 318 321 322 322 321 321 321 321 321 321 320 319 319 319 319 322 327
305 306 306 306 305 305 306 306 304 303 305 304 304 304 301 302 308 310 311 310 309 308 307 307 315 315 313 314 314 318 323 321 320 321 321 320 320 320 320 319 319 319 320 320 323
305 306 306 306 306 306 306 305 302 303 304 304 302 304 302 304 311 314 309 307 306 305 305 306 310 316 316 316 315 315 319 319 319 319 319 319 319 319 319 319 320 320 320 321 323
304 304 306 306 306 306 306 302 301 303 302 300 300 304 302 310 311 314 306 307 307 305 310 313 311 312 313 314 316 316 316 316 317 318 318 317 318 318 319 319 319 319 320 320 320
303 304 305 305 305 305 304 299 300 301 298 298 300 306 308 311 313 311 306 306 312 311 313 315 313 311 311 311 312 314 314 315 317 316 317 316 316 316 317 318 318 318 319 319 319
304 303 302 303 303 302 298 297 298 296 298 300 303 306 309 309 309 309 307 308 310 313 314 313 314 314 314 314 314 314 314 314 314 314 314 314 315 314 315 315 316 316 317 318 319
303 301 300 299 299 297 296 296 296 298 301 303 305 308 310 310 309 309 308 306 307 309 313 314 313 315 315 315 315 315 315 315 315 314 314 315 315 315 316 316 316 317 318 317 318
301 300 299 298 296 296 296 296 298 300 306 307 308 311 311 310 309 308 309 309 309 307 309 310 312 313 315 315 315 313 313 312 312 313 314 314 315 315 316 317 318 318 318 319 319
300 299 299 297 296 296 296 299 302 306 308 307 312 313 312 311 310 311 312 311 310 309 308 309 309 311 312 314 313 313 314 313 313 313 314 315 316 317 318 318 319 319 319 319 320
299 299 298 297 295 295 299 302 306 308 309 311 311 314 313 312 312 312 312 312 312 312 312 310 309 310 311 312 313 313 314 314 313 313 314 314 315 316 317 316 316 317 319 320 320
299 299 298 296 295 297 301 307 311 314 314 315 312 313 309 308 308 308 308 312 312 312 312 312 311 311 312 313 313 313 313 313 313 312 312 313 313 313 314 314 315 315 316 319 320
299 298 296 294 295 300 302 308 304 303 305 309 307 308 309 310 310 310 307 311 312 312 312 312 312 313 313 313 312 312 312 312 312 312 313 314 315 316 317 318 317 315 316 317 320
298 296 294 295 296 302 302 302 301 303 307 308 310 312 312 311 313 312 308 309 311 312 314 314 314 314 315 314 314 313 312 312 312 312 314 316 316 316 317 316 317 317 317 316 318
295 294 294 295 300 302 305 301 302 305 313 309 310 312 312 312 314 312 311 310 311 311 312 313 313 313 314 314 313 314 313 313 315 315 318 315 318 316 315 317 319 319 318 318 318
295 294 294 296 302 304 302 301 303 308 314 309 313 311 310 311 310 313 311 310 310 312 312 312 312 312 313 313 312 311 313 315 315 317 318 317 315 315 316 317 318 319 321 320 319
295 294 294 302 303 302 301 302 306 318 312 307 312 310 306 308 310 312 311 311 311 311 312 311 311 312 311 312 313 314 314 314 315 317 320 318 314 315 316 322 323 324 324 327 322
293 293 296 299 304 301 302 306 317 313 306 306 308 307 305 304 304 306 309 313 313 313 314 314 314 313 313 314 313 315 316 315 315 315 318 321 324 319 324 324 323 324 327 327 327
293 294 300 301 302 302 304 310 310 304 306 305 304 304 303 303 303 304 306 307 308 308 310 310 311 312 314 315 314 314 315 318 315 319 317 317 328 326 323 325 324 324 323 323 323
294 299 302 302 301 302 306 310 307 306 304 303 302 301 303 304 305 307 307 305 306 307 308 313 312 313 313 313 313 314 315 314 317 316 317 317 320 327 324 323 322 321 320 319 318
298 301 301 300 301 304 308 306 304 302 300 301 301 301 302 304 304 304 304 305 309 313 313 314 316 311 313 314 314 314 315 321 322 321 318 316 320 329 324 322 320 319 318 316 314
299 303 301 299 302 307 309 304 301 300 300 300 301 301 301 301 301 301 301 302 303 309 308 311 314 317 315 317 316 315 317 316 319 320 322 326 328 319 321 320 319 318 315 312 309
301 307 300 301 307 305 304 302 297 300 301 301 301 301 301 301 302 302 302 302 303 303 302 308 314 317 315 313 314 314 314 318 322 319 321 322 324 321 320 319 318 316 313 309 305
302 302 298 302 309 305 301 300 301 301 301 301 301 301 302 302 302 302 302 303 303 302 304 307 310 312 312 311 312 313 314 318 321 321 321 323 322 320 320 320 318 315 312 307 304
303 305 301 302 302 304 301 301 301 301 302 301 301 302 302 302 302 302 302 303 303 304 305 306 306 308 313 313 312 316 318 317 317 323 320 320 319 318 322 322 320 313 308 304 301
302 306 303 305 302 302 302 300 301 300 301 301 302 302 303 301 301 301 302 302 303 304 303 305 305 305 308 309 309 312 316 315 316 320 320 317 314 321 322 323 316 311 308 304 301
301 303 301 302 301 301 299 300 300 300 299 301 301 300 301 300 300 302 302 302 303 302 303 306 307 305 306 306 308 312 313 315 315 318 318 317 315 319 319 318 314 310 307 303 301
298 299 303 300 300 300 301 300 299 299 299 299 299 300 300 300 300 301 301 301 301 302 304 304 306 307 307 306 308 314 312 312 313 315 314 316 319 315 313 310 309 306 303 301 298

GFSSW_925_thetae_087.txt.gz
Theta_e
306 305 305 306 307 306 306 305 304 303 303 303 305 305 299 299 303 306 308 306 310 311 312 310 309 312 314 308 311 317 320 323 322 320 319 319 319 318 317 316 318 318 317 326 331
306 305 306 307 306 305 305 305 304 302 301 304 304 303 300 303 306 308 305 308 309 310 309 307 305 308 308 309 310 310 317 320 318 318 319 318 317 315 316 317 318 317 318 324 327
306 306 306 305 305 305 306 306 304 302 303 304 305 305 300 304 310 312 311 310 309 308 306 307 305 306 310 310 310 310 312 313 317 318 317 316 315 315 314 316 317 317 317 317 321
306 306 306 305 306 306 305 304 303 302 303 303 304 306 302 308 308 312 307 306 307 304 307 311 312 306 309 312 312 312 312 312 313 314 315 314 314 315 314 315 314 314 315 316 316
306 304 304 305 305 305 304 302 299 300 301 300 303 306 304 310 312 309 308 306 307 307 308 310 312 310 308 309 309 310 310 311 312 312 312 313 313 313 312 312 311 312 313 312 314
304 304 303 302 301 301 300 298 298 297 297 298 303 307 308 310 304 309 307 307 309 313 312 313 313 312 310 309 308 309 311 311 312 312 312 313 312 311 312 310 311 312 312 313 313
304 305 303 301 299 299 297 297 296 296 298 300 306 307 309 308 306 308 308 307 306 307 309 311 312 311 312 313 313 313 312 311 311 310 311 311 312 312 312 311 312 313 313 313 313
306 304 301 299 299 297 296 296 296 299 300 306 309 309 311 304 310 310 309 309 308 308 308 308 309 308 311 311 312 312 311 311 311 310 310 309 311 311 311 311 312 313 313 313 314
304 301 300 299 298 296 295 296 299 304 306 308 310 312 313 311 311 310 308 308 309 309 309 308 308 308 308 309 311 311 311 311 311 311 311 310 311 312 311 313 313 312 312 313 314
302 300 300 299 297 295 295 298 302 305 307 310 311 313 313 311 311 312 311 312 312 310 308 308 306 306 306 307 311 311 310 309 309 309 310 309 309 310 310 310 311 310 311 312 313
300 301 299 298 296 294 297 304 307 310 311 313 314 311 311 308 308 308 307 309 311 310 310 309 307 306 306 307 309 310 310 310 310 310 310 309 309 310 310 311 311 311 312 312 312
302 300 299 297 294 295 298 304 302 302 303 309 313 311 307 308 309 310 309 306 311 310 310 310 309 309 310 310 311 311 310 309 309 309 310 309 309 309 312 313 312 313 313 312 312
300 298 297 294 295 298 302 301 301 302 304 307 307 311 309 310 311 310 306 307 310 310 311 311 311 312 311 312 313 312 312 311 310 310 310 310 311 312 313 313 313 313 314 315 312
298 296 294 294 299 302 304 301 302 305 311 311 307 310 311 311 313 312 311 309 308 309 310 310 312 313 312 314 313 313 312 313 311 312 316 315 318 315 314 313 313 320 318 313 314
295 295 294 295 300 303 301 301 302 307 316 308 309 311 312 313 310 312 310 309 309 309 310 311 311 310 312 311 312 312 311 311 312 313 313 314 316 314 314 314 313 325 325 318 314
295 294 294 299 300 302 301 302 305 316 315 311 312 310 309 309 308 311 310 310 310 310 309 309 309 309 309 311 311 312 314 314 314 313 315 314 318 319 318 316 325 327 324 321 320
296 295 294 298 303 302 301 304 316 315 308 307 309 307 305 305 306 305 310 311 311 311 311 311 310 310 310 310 311 312 314 316 314 314 315 316 318 322 326 326 324 324 321 319 317
295 293 298 299 302 302 303 308 314 308 305 305 304 304 303 304 303 303 305 304 305 306 305 305 307 308 311 311 312 312 313 316 319 318 317 315 318 324 319 321 320 319 318 316 313
294 296 300 302 299 302 304 309 307 305 303 301 302 301 302 303 303 305 306 305 305 311 313 315 313 312 313 313 313 314 313 313 316 316 316 314 313 323 320 321 320 319 316 313 310
296 301 303 300 300 303 306 309 303 301 300 301 300 302 302 302 302 301 302 303 301 307 304 309 313 313 313 313 312 312 313 314 318 323 322 318 325 327 321 320 319 318 314 310 307
297 301 300 299 302 305 308 305 300 300 301 300 301 301 301 301 301 301 301 302 302 302 301 304 312 312 311 313 313 313 314 315 317 320 321 322 324 318 320 320 320 316 311 308 305
299 304 300 302 305 307 305 302 299 300 301 301 301 301 301 302 302 302 301 302 304 303 303 307 310 308 308 307 308 312 316 316 317 318 319 321 324 319 320 319 316 313 309 305 303
300 299 298 303 306 304 301 300 301 301 301 301 302 302 302 302 301 303 303 303 304 304 306 305 306 308 305 307 311 313 314 314 318 319 322 321 322 320 319 319 313 309 305 303 301
300 302 299 301 301 304 301 301 300 300 301 301 301 302 302 302 301 302 301 303 304 303 306 304 305 306 307 307 307 311 311 311 315 320 322 321 318 319 321 318 312 307 304 301 300
300 303 302 302 300 301 302 301 302 302 301 301 301 302 302 302 301 300 302 302 302 303 303 304 304 304 304 303 304 305 309 310 312 315 319 320 320 322 318 314 311 307 304 301 300
299 301 300 301 301 301 300 299 300 300 299 301 301 301 300 300 300 300 301 301 302 302 302 303 303 304 303 304 305 305 305 308 311 315 318 317 318 317 314 311 308 306 303 300 298
298 299 300 300 299 300 299 300 299 299 299 299 299 299 299 299 299 299 298 299 300 300 300 300 300 305 303 305 307 308 308 308 313 315 315 317 317 313 308 305 304 302 300 298 296

GFSSW_925_thetae_090.txt.gz
Theta_e
308 307 304 303 304 305 304 303 304 304 305 306 306 306 303 297 300 303 305 302 304 309 309 310 309 309 312 305 308 312 316 318 319 320 320 319 318 317 315 315 315 315 314 323 334
308 307 305 305 305 304 304 304 305 305 304 304 304 303 298 300 304 308 302 304 304 308 310 310 308 305 310 307 307 309 312 318 317 318 317 317 317 317 314 314 316 315 316 327 330
309 307 305 304 304 304 304 304 303 303 303 302 302 304 298 304 309 310 310 309 309 309 309 307 306 304 309 308 308 308 312 312 312 312 313 316 317 317 315 314 315 315 315 315 322
309 307 306 304 304 304 306 304 303 301 300 300 302 305 303 307 302 312 306 306 307 306 305 306 308 306 305 311 309 310 310 311 311 311 311 311 312 313 311 313 313 312 311 312 315
307 306 305 305 304 305 304 302 300 298 298 298 301 305 305 309 310 301 306 307 306 305 307 309 311 310 309 307 308 310 311 311 311 311 311 311 311 311 311 310 309 309 310 309 310
306 306 304 304 304 303 301 299 297 296 296 297 304 306 306 305 301 305 308 306 310 310 311 309 312 312 310 308 306 308 307 308 309 309 309 311 310 309 311 309 309 309 310 309 309
306 305 305 304 303 300 299 298 296 296 296 299 305 306 308 305 304 309 307 307 306 309 311 311 312 309 309 311 312 312 312 310 310 310 309 309 309 309 308 308 308 310 310 310 311
305 304 305 303 300 299 298 297 295 295 299 302 307 308 308 302 302 307 309 309 308 307 306 307 307 307 308 308 308 310 310 311 311 310 310 308 310 309 308 308 309 310 310 310 310
305 305 304 301 300 299 298 295 295 297 302 308 309 309 312 310 312 310 309 309 308 308 308 308 307 306 307 307 307 309 311 311 310 309 309 309 310 309 308 309 309 309 308 309 310
304 305 301 300 299 298 296 295 300 301 306 310 310 311 310 311 311 311 311 309 307 309 307 306 304 305 303 304 308 310 311 308 307 307 309 308 308 308 307 307 308 307 305 306 308
304 302 300 300 300 298 296 300 307 308 308 311 310 311 311 308 307 308 309 309 309 309 307 307 306 305 304 304 306 308 308 308 308 307 309 307 307 308 308 307 308 309 310 310 310
302 300 300 300 298 296 298 302 303 302 303 309 312 312 310 311 309 309 308 305 306 310 309 309 308 308 307 307 307 308 308 308 308 308 308 308 308 309 308 307 309 311 311 311 312
301 302 299 297 294 294 298 302 301 301 302 303 305 311 313 311 309 310 307 305 309 310 310 309 310 310 309 309 310 310 309 309 311 310 308 308 310 311 310 310 311 312 313 319 319
302 299 296 294 296 300 302 301 301 304 303 307 308 308 311 311 311 310 306 306 306 307 308 309 310 311 311 311 310 311 311 311 311 310 311 312 315 312 312 312 312 312 320 319 317
297 296 294 294 299 301 301 301 302 307 311 309 307 309 311 312 312 311 309 308 308 308 309 310 309 309 309 310 311 311 311 311 310 311 312 312 312 312 316 325 323 323 321 318 315
296 295 295 296 297 301 301 300 305 314 312 309 311 311 312 312 309 310 310 309 308 308 307 307 308 308 308 309 309 311 313 312 312 312 315 312 312 314 324 322 319 320 319 317 314
296 295 295 296 301 302 301 303 313 316 310 310 312 311 311 309 309 312 311 310 310 311 310 309 310 309 309 308 308 310 311 314 315 313 315 313 315 316 319 319 318 320 319 314 312
295 294 293 295 301 301 303 306 316 306 305 303 303 304 304 303 303 302 305 305 310 309 307 306 307 307 310 309 309 309 311 314 319 316 312 313 315 322 319 317 316 319 316 312 309
293 295 297 299 301 301 304 310 306 304 301 301 302 301 302 303 302 305 303 303 304 302 310 308 311 308 311 309 309 312 312 311 314 313 316 314 319 320 319 319 319 319 314 309 306
297 299 301 302 300 302 305 309 300 300 301 301 302 302 302 301 301 301 302 302 302 301 301 304 304 311 308 309 310 312 313 311 311 317 319 316 317 323 321 320 320 317 312 306 304
296 300 301 298 301 303 304 303 300 300 301 301 301 301 301 301 301 301 302 303 302 302 302 304 308 306 304 310 306 306 309 314 314 316 318 317 316 319 319 319 320 313 308 303 302
297 301 300 299 304 305 302 302 301 301 302 301 301 302 303 303 302 302 302 303 303 303 304 305 307 308 304 304 304 306 313 317 319 318 316 316 316 319 318 318 312 308 305 302 300
299 298 298 302 302 301 301 301 301 302 302 302 302 303 302 302 301 303 301 302 303 302 303 303 303 304 299 302 307 308 307 308 312 315 317 320 317 318 319 312 308 306 302 301 299
299 298 297 298 300 301 301 301 301 301 301 302 303 303 302 302 301 301 302 303 302 303 306 303 303 303 303 303 304 304 303 304 309 314 315 315 319 319 318 314 309 305 301 301 299
297 300 301 300 300 300 301 302 302 301 301 301 301 302 301 302 300 300 301 301 301 302 302 302 303 303 303 303 303 304 304 304 305 307 313 316 317 318 315 312 308 304 302 300 298
298 300 299 299 300 300 300 299 301 300 301 301 300 301 299 299 299 300 299 300 300 301 300 300 301 301 299 300 302 303 304 304 305 305 309 311 318 308 308 307 305 303 300 299 297
297 297 299 298 298 299 298 300 300 299 299 298 298 298 298 299 298 297 297 298 298 299 298 298 297 300 299 302 303 304 306 305 305 310 314 316 316 309 304 301 299 299 297 296 294

GFSSW_925_thetae_096.txt.gz
Theta_e
311 310 309 307 306 305 304 305 305 306 306 307 307 304 299 299 297 303 304 302 302 302 304 309 310 311 308 305 306 308 313 312 312 314 313 316 317 315 315 315 313 313 313 313 324
314 311 310 308 307 305 305 305 304 305 305 305 303 304 297 297 302 304 305 307 301 306 306 309 309 307 306 309 304 310 311 311 311 312 315 316 315 315 315 314 314 313 312 313 315
320 315 311 310 309 306 304 303 304 305 304 302 300 300 296 297 299 301 307 307 303 306 308 309 306 305 306 306 304 305 309 310 313 314 313 311 311 311 312 312 312 312 311 310 311
320 318 314 310 309 308 305 304 305 304 301 299 299 303 297 299 307 307 306 307 308 308 309 305 304 302 302 307 307 307 306 308 310 311 309 309 309 309 309 310 309 309 309 309 308
322 319 314 311 310 309 306 306 305 303 300 298 300 304 302 301 300 302 303 305 307 308 307 303 305 303 302 303 306 308 309 309 308 308 308 308 308 309 308 307 306 306 306 306 306
321 320 315 312 310 308 307 305 304 301 299 298 302 304 304 295 301 301 302 304 304 305 304 305 306 306 308 309 306 306 306 306 306 306 306 307 307 306 307 306 306 305 305 305 306
320 319 315 312 310 307 306 304 302 300 299 299 304 305 305 299 301 304 308 308 306 305 308 306 308 310 308 307 308 309 310 308 308 309 308 307 308 306 306 306 305 304 305 304 304
319 317 314 312 309 306 305 303 301 299 298 298 305 305 304 301 302 301 301 303 307 308 310 309 309 306 305 305 306 308 308 310 309 308 309 308 309 307 307 307 306 305 304 305 304
319 318 313 311 308 305 304 302 300 299 300 301 307 307 305 304 308 305 302 303 304 306 306 306 304 303 305 305 305 306 309 309 309 308 308 307 308 308 306 306 305 304 303 303 304
319 316 312 310 306 305 303 301 300 302 302 306 308 304 305 305 309 311 310 304 305 305 305 304 303 302 302 304 307 308 308 307 308 307 306 305 306 306 305 305 304 303 302 302 306
318 314 310 308 305 304 302 301 303 305 306 307 306 303 305 308 308 306 308 306 306 306 305 304 303 304 305 304 306 307 307 307 305 304 306 306 306 305 306 304 303 303 308 315 315
316 312 309 305 305 303 301 299 303 303 303 305 306 306 305 307 310 310 307 307 307 308 305 305 305 305 304 303 304 304 305 305 304 305 305 305 307 306 305 305 312 316 317 316 314
312 308 305 305 302 300 300 298 299 302 302 302 303 306 306 307 308 312 305 305 306 308 307 307 308 307 307 307 306 306 306 306 307 307 307 306 306 308 307 315 318 317 316 315 313
308 305 304 302 299 298 299 301 299 298 301 299 302 307 307 310 311 308 305 305 305 307 307 307 307 308 308 309 307 308 307 308 308 309 310 308 310 308 312 317 318 315 313 313 312
304 303 300 299 297 299 301 299 300 302 304 301 304 305 308 309 307 309 305 304 304 305 306 308 307 308 309 309 308 309 309 309 309 309 309 310 310 307 315 318 318 315 316 313 310
300 299 298 296 297 300 301 302 305 304 303 304 306 308 311 309 310 307 305 306 304 305 306 306 306 306 307 308 307 309 310 310 308 310 311 309 308 307 312 319 317 316 317 314 310
299 298 298 296 296 301 301 303 302 303 304 309 309 309 308 309 311 309 307 307 307 307 307 307 307 307 308 308 307 308 308 310 310 312 312 309 310 310 311 316 317 318 316 310 307
298 295 295 295 299 302 303 304 302 300 300 302 306 310 312 310 306 308 307 303 299 308 307 308 307 308 308 310 311 309 308 311 314 315 311 310 312 311 316 316 317 314 310 307 304
296 295 294 298 300 301 302 305 301 303 301 302 311 311 302 302 303 302 302 301 300 300 309 309 311 305 305 304 307 310 309 309 310 311 313 310 310 311 317 318 316 310 307 304 302
295 295 298 298 300 302 303 303 302 301 302 304 310 305 301 302 302 302 302 302 301 302 302 302 302 305 303 304 304 305 307 312 311 317 316 312 312 313 316 316 312 309 305 302 300
299 299 298 300 299 302 304 304 302 302 302 303 303 303 302 302 302 302 303 303 302 302 303 303 302 303 301 303 302 300 306 311 311 314 318 316 310 314 314 311 309 306 304 301 298
296 298 301 300 302 302 303 305 302 302 302 303 304 304 304 303 303 303 303 303 302 302 303 302 305 304 301 301 303 303 311 309 310 313 310 313 312 313 310 307 306 304 302 299 297
296 297 299 299 303 304 302 302 302 303 302 303 303 303 303 302 302 303 303 302 303 302 301 300 301 299 297 301 300 303 302 304 304 305 306 308 309 309 310 308 305 303 301 298 297
295 294 296 298 300 301 300 302 302 302 302 302 303 302 302 302 301 302 302 301 301 304 304 302 301 299 297 298 302 303 302 301 301 294 298 301 302 302 308 308 305 302 300 297 296
296 294 296 296 299 299 300 302 302 301 301 301 301 302 301 300 300 300 299 299 300 301 300 300 301 302 301 301 300 300 298 296 299 300 300 298 300 301 307 307 303 300 298 297 295
295 298 297 298 300 300 300 301 302 300 301 300 300 299 299 299 299 299 298 298 298 298 298 297 300 299 300 299 297 297 298 298 300 300 301 301 301 304 306 302 299 297 296 295 294
296 296 297 297 297 298 299 301 299 299 298 299 299 298 298 298 297 297 296 297 297 298 298 297 296 297 297 299 298 297 300 306 305 306 307 303 302 305 301 298 296 295 294 294 292

GFSSW_925_thetae_099.txt.gz
Theta_e
322 320 315 313 310 309 307 305 306 305 305 305 304 300 298 297 297 302 304 303 303 303 305 307 308 307 307 307 311 310 312 311 311 313 313 316 318 317 317 317 316 316 317 316 314
324 322 319 317 312 310 308 306 305 305 306 305 302 301 297 297 302 305 305 307 302 303 307 308 308 308 311 308 307 315 314 311 313 313 314 315 316 316 315 316 316 315 314 313 313
325 324 323 317 315 312 309 307 305 305 305 303 300 300 296 299 301 302 307 307 303 307 307 308 308 308 309 308 306 308 310 312 314 315 315 315 315 314 315 315 314 315 314 313 312
324 324 323 322 316 313 310 308 306 305 304 301 299 298 298 300 313 306 307 306 303 307 307 306 304 306 306 309 308 307 308 310 311 312 312 313 313 312 311 313 313 313 312 310 312
320 320 321 322 317 313 311 308 306 305 303 300 300 299 301 301 299 302 306 307 307 307 306 306 306 304 305 304 307 310 310 310 310 310 310 310 311 312 311 311 311 309 309 310 310
315 319 318 320 318 313 311 308 306 304 302 300 302 303 304 296 300 300 301 303 306 308 306 304 306 305 305 307 307 308 309 310 308 309 308 309 311 308 311 310 310 308 309 309 309
314 317 319 317 318 314 310 307 305 303 301 301 302 304 304 300 300 301 305 305 306 305 305 304 307 310 310 310 309 309 310 310 310 311 311 310 311 310 311 308 309 310 310 309 309
314 315 318 316 315 313 309 307 304 303 300 297 301 305 303 301 301 301 301 302 307 305 306 308 306 309 307 307 307 309 309 311 311 310 310 310 312 311 309 309 310 310 309 309 308
313 316 317 317 316 312 309 306 304 303 301 299 305 306 305 303 305 304 303 302 302 305 307 306 306 306 305 307 308 308 309 311 311 309 310 309 310 310 310 309 309 309 309 307 309
312 317 316 316 314 311 308 305 303 301 302 305 306 306 305 307 305 308 309 303 303 305 305 306 305 306 306 307 310 309 310 310 311 308 308 308 308 308 309 308 309 309 307 315 319
313 316 316 314 311 310 305 303 304 304 305 307 307 307 304 306 307 307 307 304 305 305 307 305 307 307 307 307 307 309 309 309 309 307 306 308 309 310 310 308 309 309 319 319 317
314 317 316 312 309 308 305 303 305 304 307 305 305 306 307 306 307 306 307 308 307 305 305 305 308 307 306 305 306 307 307 307 307 306 307 310 311 310 310 309 310 320 318 318 317
316 316 314 308 305 303 301 301 302 301 303 304 305 306 307 306 308 308 307 307 307 309 307 307 309 307 306 305 306 306 307 309 310 309 309 309 311 310 308 315 319 318 316 316 316
317 315 308 303 303 301 300 301 300 298 304 308 303 304 307 307 308 308 307 308 306 310 308 309 309 307 308 308 308 309 308 309 310 310 313 310 312 310 312 314 319 317 318 317 315
313 306 303 302 298 299 300 299 301 298 313 304 302 304 306 309 308 309 309 305 311 307 310 312 309 310 310 310 309 310 310 310 310 311 311 312 312 311 311 317 318 318 319 315 313
302 300 299 298 299 299 299 299 301 304 310 303 306 308 307 308 307 307 309 306 306 307 306 308 306 308 309 309 309 309 310 311 310 312 313 312 311 310 312 317 317 318 318 313 309
300 300 301 300 299 299 300 302 304 307 304 306 308 310 310 309 306 309 307 307 307 307 307 307 307 307 307 308 308 309 310 310 312 314 311 310 311 311 311 316 318 319 314 310 306
300 299 298 299 300 301 301 305 305 302 299 301 303 309 309 307 308 308 308 305 301 308 307 308 308 308 306 310 311 309 310 310 311 313 312 310 313 313 315 319 315 311 309 306 304
295 295 296 299 299 301 302 304 305 304 303 303 312 310 304 304 304 304 303 302 300 302 310 310 310 307 305 304 308 310 311 310 312 312 312 311 311 314 318 318 313 310 307 305 302
294 295 295 298 300 301 303 304 302 301 301 304 309 308 307 303 304 304 304 302 302 303 303 303 305 305 304 306 303 309 309 316 315 313 311 311 313 315 317 316 312 310 307 304 301
297 298 297 298 301 302 303 303 303 302 302 305 306 306 303 303 305 304 303 303 303 303 303 304 304 303 302 303 301 301 305 313 313 315 316 313 314 314 314 311 310 307 305 302 300
296 299 299 299 301 302 302 302 302 302 303 304 305 305 303 303 303 305 304 303 303 302 303 303 304 302 302 302 302 305 310 310 309 311 311 313 314 312 311 309 307 305 303 301 299
299 300 299 299 301 301 302 301 302 303 304 306 305 304 302 302 302 302 301 301 303 302 302 301 301 299 301 303 302 303 303 302 303 305 305 310 310 311 309 306 303 303 301 300 298
294 299 297 299 299 302 302 302 302 301 302 304 305 303 302 301 301 302 300 300 302 305 304 302 301 299 299 302 302 302 302 301 301 305 303 304 302 301 301 305 304 302 300 298 297
296 296 297 298 299 300 300 303 302 302 301 301 302 302 302 301 300 300 299 299 300 301 300 302 301 302 301 301 301 301 300 299 298 298 299 296 298 300 300 303 303 300 298 296 295
296 299 297 298 299 299 300 302 301 300 301 301 301 300 300 299 300 299 299 299 299 299 299 299 303 300 300 300 300 299 299 297 298 298 300 302 304 304 303 302 300 297 296 295 294
295 295 298 298 298 299 300 302 300 299 298 300 299 299 299 298 298 298 297 298 298 299 299 299 300 298 296 299 298 297 299 298 303 304 305 305 305 305 302 300 297 295 295 294 292

GFSSW_925_thetae_102.txt.gz
Theta_e
324 325 324 323 321 317 311 309 307 305 305 305 304 301 300 297 298 306 308 309 306 304 304 310 310 310 312 313 314 313 315 318 319 318 318 316 317 318 319 319 319 319 319 319 316
322 324 325 324 323 320 315 311 308 306 305 304 303 300 298 297 306 307 309 304 304 302 308 309 311 311 312 313 314 314 316 317 317 316 316 316 317 317 316 316 317 318 317 316 316
320 322 324 324 323 322 315 312 309 307 305 305 302 299 297 298 308 312 307 308 304 303 307 309 310 311 311 313 312 313 315 317 315 314 314 315 315 315 315 316 316 317 316 316 316
311 319 321 323 322 322 318 313 310 307 305 304 301 299 297 305 326 309 307 306 306 311 308 309 310 311 311 312 312 310 311 312 313 312 314 314 314 314 314 314 314 314 315 315 315
308 312 314 319 319 320 318 313 310 307 305 303 300 299 302 306 310 309 306 305 307 311 309 311 310 311 310 310 311 311 311 311 311 311 311 311 312 313 314 315 315 314 314 314 314
307 311 314 314 318 318 317 313 310 307 305 301 300 299 304 311 311 302 307 311 310 309 309 309 309 309 309 308 309 311 311 312 313 313 313 313 313 313 314 314 315 314 314 314 314
311 312 313 315 313 318 316 314 310 307 304 302 301 303 306 312 309 304 304 305 308 308 309 307 307 308 309 310 310 311 311 312 313 312 312 313 313 314 314 315 314 314 314 314 314
312 313 313 314 314 318 316 313 311 307 305 303 299 305 310 308 307 306 305 304 307 308 307 307 307 310 311 311 310 311 313 314 315 314 313 313 316 315 314 313 313 314 314 314 314
314 313 313 313 315 317 315 312 310 307 304 303 302 305 311 307 307 308 307 306 305 308 307 308 309 310 312 312 313 313 315 316 315 314 314 314 315 313 313 312 313 314 314 314 315
313 313 313 312 315 316 314 310 306 304 303 304 304 309 310 314 309 307 310 307 306 306 309 309 309 311 312 312 315 316 315 315 315 314 312 313 313 312 311 313 314 314 314 315 318
314 314 314 312 316 311 310 305 305 305 305 313 313 313 314 310 307 309 309 307 305 306 310 308 308 312 312 312 312 312 313 314 314 313 311 312 311 311 313 314 315 314 315 318 319
315 315 313 315 314 313 310 307 310 309 315 310 311 312 311 309 311 310 308 308 304 307 308 309 311 312 311 310 310 311 312 312 312 311 309 311 313 314 314 314 314 314 319 320 319
315 315 313 315 313 307 307 306 303 305 309 314 312 312 313 311 313 315 310 311 309 307 305 310 312 309 309 309 309 310 310 311 309 312 312 314 314 315 313 313 317 318 319 319 319
315 314 314 307 305 303 302 301 301 306 312 314 310 310 310 310 313 312 310 312 311 314 309 308 307 307 309 309 309 310 309 309 310 313 314 314 314 313 312 315 317 319 320 320 318
316 316 312 312 303 303 303 302 301 302 318 311 308 306 308 312 311 312 312 309 313 312 310 313 310 310 310 310 309 310 310 311 312 314 315 314 314 313 312 314 318 319 321 319 316
310 305 303 301 300 300 301 301 302 314 317 311 306 307 309 310 310 310 313 309 310 313 312 313 311 311 311 311 311 310 311 312 313 314 316 313 314 313 313 314 317 320 319 317 314
300 300 301 300 300 298 300 302 309 317 308 311 310 310 309 309 309 310 314 310 312 316 316 313 312 309 310 311 311 311 311 314 314 314 314 312 312 312 313 316 318 321 318 315 313
302 302 301 301 299 300 302 306 314 311 309 304 305 308 311 310 309 310 315 314 312 310 310 311 311 309 309 310 310 312 311 313 315 313 313 313 312 318 320 320 318 316 314 313 311
301 299 299 299 300 301 305 311 313 308 306 306 306 311 312 309 308 309 311 313 309 308 310 311 310 308 308 308 311 311 313 312 312 313 314 313 314 320 319 318 316 315 313 312 309
298 299 298 299 300 301 308 309 306 303 303 304 308 310 314 308 309 309 309 306 305 305 306 308 310 308 306 307 307 313 312 315 315 314 313 311 312 314 319 317 313 312 312 311 308
298 302 297 298 300 303 308 306 304 303 303 306 308 309 308 306 308 310 308 305 304 303 306 306 307 308 305 307 307 308 312 315 315 315 314 314 314 317 315 312 312 310 310 309 307
301 303 299 299 303 305 305 303 302 303 303 305 307 307 307 306 310 308 307 306 305 305 306 305 305 305 305 306 304 304 308 309 311 310 313 316 314 314 313 310 309 308 308 306 304
302 300 298 299 306 305 303 303 303 303 304 306 306 306 304 306 305 309 307 304 304 304 304 303 304 306 305 305 304 305 306 305 306 306 308 310 310 314 311 309 307 306 305 304 302
301 302 301 301 302 304 303 303 303 303 304 305 306 305 304 304 304 305 304 302 305 305 304 302 302 302 303 305 305 305 304 303 304 308 305 305 304 309 305 302 304 306 303 303 300
300 302 301 303 303 303 303 303 304 303 304 303 305 306 308 304 303 303 302 303 302 302 303 303 301 301 301 301 301 302 302 301 301 301 301 300 299 300 304 308 307 304 302 300 298
303 301 300 300 301 303 303 303 303 303 304 303 305 303 304 305 303 302 301 302 302 301 302 301 303 301 300 300 300 300 300 300 300 300 299 300 302 307 306 306 303 302 300 298 297
300 300 301 301 301 303 303 303 303 302 302 303 303 302 302 300 300 300 300 300 301 301 300 300 302 300 297 298 298 298 300 300 300 301 304 306 306 304 305 305 301 299 297 296 294

GFSSW_925_thetae_105.txt.gz
Theta_e
325 325 323 323 325 323 321 318 313 312 308 306 305 304 302 304 306 315 318 317 313 309 304 311 312 313 313 316 316 317 319 322 323 324 324 323 320 321 321 321 321 322 321 321 320
325 325 324 322 323 324 323 320 317 312 309 306 305 303 302 302 310 318 318 314 306 304 306 311 313 313 315 317 317 318 321 322 323 322 321 321 320 320 320 320 320 319 320 319 318
312 315 317 316 321 323 323 321 315 313 310 307 306 303 302 304 319 318 307 307 308 303 310 311 312 314 315 317 318 318 320 322 322 321 319 319 318 318 318 319 319 319 320 319 318
307 307 308 311 318 320 322 320 317 314 310 307 305 303 302 308 330 316 307 307 305 309 310 312 313 315 316 317 318 318 318 317 318 319 317 317 318 318 318 318 318 318 317 317 318
306 307 307 308 314 318 319 319 318 313 309 307 305 302 307 315 318 319 312 307 308 312 312 314 315 316 317 318 318 318 318 317 316 315 315 315 315 315 316 316 317 317 317 316 317
305 306 307 310 312 316 315 318 316 313 309 306 303 302 308 319 319 318 310 312 311 312 313 314 315 316 316 315 315 316 316 316 316 316 315 314 315 315 316 316 316 316 316 317 316
305 306 309 311 311 314 316 316 317 313 309 305 303 305 310 317 318 316 310 312 315 314 316 315 314 314 314 315 315 315 314 316 315 316 317 316 316 317 317 317 317 317 317 317 316
307 312 312 312 312 313 317 314 316 313 308 305 305 305 314 315 315 316 316 311 310 312 313 313 312 312 312 314 315 316 317 318 319 318 317 316 318 319 318 317 317 316 317 316 316
310 312 312 313 313 313 316 315 314 310 306 305 306 310 317 312 313 313 313 314 313 311 311 312 310 313 313 314 316 319 319 320 321 320 318 318 318 318 318 316 316 316 316 317 316
310 312 312 313 313 313 316 312 307 306 305 305 307 311 313 316 316 312 312 312 313 313 312 313 312 315 315 316 321 322 322 322 320 321 317 319 318 318 316 315 315 316 316 317 316
312 314 313 314 313 314 309 307 307 307 306 316 316 315 316 316 312 312 314 313 312 311 312 313 315 317 318 319 318 319 320 322 320 320 318 317 317 317 316 315 315 316 316 316 318
315 315 314 315 313 312 312 311 315 313 317 312 314 315 314 315 316 315 313 313 314 314 314 314 315 316 317 315 316 317 318 319 319 318 316 316 316 315 315 315 316 317 317 318 320
316 316 316 315 313 311 310 313 308 310 314 315 315 316 316 314 316 316 315 314 314 314 314 315 316 313 314 315 316 317 317 316 317 317 316 314 314 315 316 317 316 315 318 320 320
317 315 316 314 308 310 309 305 307 311 315 315 315 314 314 314 316 314 314 316 315 315 314 314 314 314 313 314 314 316 314 313 315 315 314 315 318 318 317 315 315 318 320 320 320
315 315 315 313 306 307 304 303 307 309 320 311 314 310 312 315 314 314 314 315 316 315 314 316 313 313 314 314 311 315 312 313 315 312 314 316 318 318 316 315 316 319 320 320 319
316 315 311 307 307 307 304 305 307 315 316 313 311 309 311 314 314 312 313 315 313 314 314 316 314 314 313 310 310 312 314 313 314 314 317 317 317 318 316 315 317 320 320 319 317
311 307 305 304 304 304 303 307 311 318 313 315 311 311 311 313 313 312 314 316 316 317 317 316 315 313 312 314 312 313 316 317 318 319 322 316 316 317 315 315 318 321 320 318 316
301 301 301 302 302 301 304 309 316 315 315 310 310 311 313 313 313 312 313 316 313 315 318 321 321 315 312 312 316 314 315 316 319 317 316 314 315 321 320 321 320 319 318 316 314
303 300 300 300 301 302 306 314 317 316 313 311 309 311 313 312 313 312 312 316 314 314 317 315 314 311 310 311 311 316 316 312 315 315 317 318 320 322 320 319 319 317 316 314 312
301 300 300 300 302 303 308 314 314 310 308 307 310 313 314 314 313 311 311 313 315 314 312 313 315 311 310 309 310 312 314 314 315 320 316 316 317 321 322 319 317 314 313 311 310
303 304 299 300 301 303 313 312 310 308 306 307 309 313 312 313 311 311 313 309 312 308 308 310 311 311 309 310 310 311 318 316 317 317 318 318 321 320 320 316 314 312 310 308 308
303 308 298 300 303 305 309 308 304 307 306 307 308 310 310 311 310 314 313 310 307 307 310 311 311 313 310 308 307 308 310 312 318 315 317 315 317 316 315 313 310 308 307 307 306
305 302 298 300 308 307 306 307 305 306 306 307 308 308 308 310 310 314 310 307 308 309 310 308 310 310 309 308 307 307 308 309 309 310 309 312 314 315 312 311 307 305 307 306 305
303 306 300 299 303 307 306 306 306 305 306 307 309 308 308 309 308 312 311 308 306 306 304 305 307 309 309 308 308 307 306 306 307 311 308 307 306 311 305 304 307 310 307 306 303
304 306 304 305 305 306 307 306 306 306 305 306 309 308 309 309 308 309 308 306 305 304 304 305 306 305 303 303 303 305 305 305 304 304 304 303 302 302 307 308 309 306 305 303 300
305 304 304 304 304 304 306 307 306 306 305 307 307 307 309 309 307 306 306 306 304 303 304 303 305 304 303 302 302 301 301 301 302 302 302 302 301 308 307 307 306 303 302 300 298
301 303 304 304 305 306 307 305 306 306 305 306 306 306 308 306 304 305 304 304 304 304 304 303 305 302 301 300 300 300 302 302 301 301 302 304 307 305 305 302 300 300 298 296 295

GFSSW_925_thetae_108.txt.gz
Theta_e
325 324 324 324 324 322 323 323 322 318 317 315 313 312 313 311 321 319 322 321 318 315 310 308 314 315 316 315 317 318 319 321 322 323 324 325 324 322 322 321 322 322 322 322 322
321 320 321 322 323 321 320 322 322 318 317 314 310 310 314 310 312 318 320 316 313 311 307 311 315 316 316 317 318 319 320 321 322 323 324 323 322 322 321 321 322 321 322 321 321
309 309 309 308 309 316 317 320 321 319 317 315 311 310 311 312 318 316 308 307 307 307 308 313 315 316 318 318 318 319 320 320 321 322 322 321 321 321 320 320 321 321 321 322 321
307 307 307 307 308 309 315 318 319 319 317 313 309 310 310 309 327 316 315 313 309 307 310 314 316 317 318 319 320 319 319 320 320 320 319 319 319 319 319 321 320 320 319 319 318
307 305 305 306 307 308 312 316 316 318 317 312 310 307 308 316 320 321 318 317 309 308 314 316 316 318 319 319 320 321 320 320 320 319 319 318 317 317 317 318 318 318 318 318 318
307 305 305 305 307 311 310 316 316 317 316 313 310 306 309 318 317 320 318 316 313 313 315 317 318 319 319 319 319 318 318 318 318 317 317 317 318 317 317 317 317 317 318 318 318
306 304 305 306 311 312 312 313 317 314 314 311 309 306 310 315 315 317 318 316 314 316 317 317 318 318 319 319 319 319 318 318 318 318 318 318 318 318 319 318 318 318 318 317 317
305 305 307 309 311 312 312 313 316 315 311 310 308 306 312 313 315 315 316 317 318 314 314 315 316 317 317 317 317 317 318 321 320 320 320 319 320 319 319 319 319 318 318 319 318
306 307 310 310 311 312 312 313 317 313 310 308 307 309 315 314 316 315 316 316 318 316 313 314 315 316 316 317 319 319 322 322 322 322 321 321 322 320 319 319 319 318 318 318 317
306 308 310 311 312 312 313 313 309 308 307 306 309 311 313 314 315 316 314 315 316 317 316 315 315 317 316 316 323 320 320 322 323 323 323 322 323 320 320 319 318 318 317 318 317
306 307 309 314 313 313 310 309 309 309 306 316 315 314 315 315 314 314 314 315 314 316 317 316 316 317 315 316 317 319 319 320 320 320 322 323 320 320 319 319 318 317 317 317 318
305 307 311 314 313 313 311 313 314 314 318 312 315 315 314 313 316 314 314 315 315 316 315 315 315 314 314 315 317 318 320 320 320 319 319 320 321 319 318 318 318 317 316 317 318
305 309 314 317 315 311 311 313 311 313 316 315 315 316 315 315 316 316 315 315 315 315 315 316 315 314 315 315 316 316 317 318 319 318 317 318 321 320 319 317 317 317 317 318 321
307 311 316 317 310 310 312 311 311 313 317 313 314 315 315 316 316 315 315 316 316 317 316 316 315 315 314 315 315 317 316 317 317 318 322 317 325 319 317 317 316 317 318 321 321
308 316 316 316 311 311 308 309 312 311 316 309 312 313 314 315 315 315 315 315 317 317 317 317 316 316 315 314 314 316 315 316 318 319 317 318 319 317 316 318 318 319 321 321 319
310 317 315 310 309 309 307 309 311 317 316 311 313 314 314 315 315 314 313 314 315 317 317 317 316 316 316 315 315 314 315 316 316 317 320 317 316 319 319 318 317 320 321 319 318
316 315 313 308 307 308 307 310 315 318 310 310 312 312 312 314 315 315 315 315 318 320 320 317 317 316 314 315 313 313 315 319 320 321 319 315 317 319 318 321 319 323 321 318 316
308 307 305 307 306 306 308 312 319 311 311 313 313 312 313 313 313 315 314 314 316 315 316 317 319 316 315 314 315 313 315 317 321 322 318 316 323 321 323 322 321 320 318 315 313
302 301 301 304 305 306 309 315 316 314 313 314 313 313 313 313 314 315 315 314 314 315 318 316 317 316 315 314 314 317 317 314 316 316 322 321 318 318 322 321 320 319 316 312 311
301 301 301 302 303 304 308 314 315 314 315 314 316 314 314 313 314 316 315 314 313 316 314 316 316 315 314 313 312 315 315 320 318 320 322 318 320 325 322 320 317 315 311 309 307
302 303 300 302 302 303 310 313 314 314 312 311 312 312 314 314 314 318 318 313 313 316 314 315 313 315 313 312 311 313 314 318 319 316 321 319 325 319 317 316 314 311 309 308 307
303 305 299 301 302 303 309 312 311 313 309 308 309 311 312 313 313 312 315 314 313 315 316 314 312 314 313 311 309 311 312 316 322 322 320 320 320 316 313 313 310 309 308 307 305
304 301 299 301 306 307 307 309 310 309 309 308 308 309 311 312 312 312 314 310 309 309 310 312 313 312 314 312 309 309 311 311 311 312 311 311 312 315 313 310 309 309 307 306 304
302 304 299 298 301 307 307 309 311 307 307 308 308 310 309 310 309 312 314 310 308 309 306 307 310 311 314 312 310 310 308 308 308 312 310 309 311 313 308 308 309 308 306 304 301
300 305 303 302 302 305 309 307 309 308 307 307 309 310 309 309 309 311 312 310 308 305 306 307 309 309 308 305 305 307 306 306 305 306 308 306 304 308 309 310 307 305 304 302 299
303 306 305 306 304 305 308 310 308 307 307 306 309 309 309 310 309 309 312 309 308 305 306 307 309 308 307 305 304 303 302 303 304 304 303 302 303 307 305 304 303 302 301 299 297
301 303 306 306 307 307 308 308 309 307 308 306 308 308 309 309 308 307 307 307 306 305 307 306 307 305 305 304 301 301 303 302 303 303 304 304 307 304 302 300 299 299 297 295 294

GFSSW_925_thetae_111.txt.gz
Theta_e
323 323 322 322 322 323 323 322 321 322 322 321 321 321 320 318 321 321 318 321 317 317 315 311 310 311 314 313 314 312 312 315 315 317 318 320 320 318 320 320 321 320 320 320 321
317 316 316 314 315 317 318 316 316 320 321 320 319 320 319 316 315 314 319 318 314 310 308 308 311 314 311 313 312 312 312 315 315 317 318 319 318 317 317 318 320 320 320 321 321
310 309 309 308 308 308 308 309 315 317 318 318 317 317 317 317 312 317 310 312 313 313 311 310 313 314 314 314 314 314 315 316 317 318 318 318 317 317 315 317 318 319 319 319 319
309 307 306 306 306 307 307 308 313 317 316 317 315 315 314 314 321 314 317 319 318 314 309 311 313 314 315 315 316 317 317 317 317 317 317 318 318 317 315 315 316 315 316 317 317
309 307 306 304 304 305 306 308 311 315 315 316 315 313 311 311 316 317 318 319 317 312 309 311 315 315 315 316 316 317 317 318 317 316 315 316 315 316 316 313 313 314 314 314 315
309 308 305 305 306 308 309 310 310 315 316 315 313 311 307 313 312 313 317 318 317 312 311 313 315 315 316 317 317 317 318 318 317 316 316 317 317 315 315 314 313 314 314 313 314
307 305 305 306 308 309 310 312 312 313 316 313 312 307 308 312 311 310 315 316 316 315 313 315 316 315 316 318 317 316 315 315 315 315 315 315 316 317 316 315 315 315 315 313 313
305 305 306 307 309 310 310 312 311 312 316 313 310 306 310 312 312 313 314 314 315 316 314 314 314 313 315 314 315 315 314 316 315 316 317 317 320 318 315 314 315 316 315 314 313
304 305 306 308 310 310 311 311 312 313 313 312 308 307 312 312 313 314 314 316 316 316 317 314 313 314 314 314 315 315 317 316 317 316 318 318 320 319 318 319 317 316 315 313 312
304 304 306 307 310 312 311 312 312 310 309 307 307 311 311 312 315 316 316 316 316 316 317 315 312 312 313 314 318 315 316 316 316 315 318 319 319 318 319 319 317 315 311 312 312
303 304 304 307 313 313 311 310 309 309 307 311 312 314 314 315 313 315 314 314 315 316 316 315 314 314 314 315 315 315 315 315 315 316 318 318 318 316 316 317 317 313 314 313 319
303 303 305 309 314 312 311 310 312 312 314 308 312 312 311 312 314 314 314 313 314 314 313 314 315 314 314 314 314 313 314 315 315 315 316 316 316 315 315 316 317 317 313 313 320
302 303 306 311 314 311 311 311 312 313 313 313 312 314 315 314 315 313 313 313 314 314 314 314 314 314 313 313 313 313 315 314 314 314 315 315 316 316 315 316 318 318 314 315 319
302 303 307 314 311 311 311 312 313 312 311 314 313 314 315 314 316 314 314 314 314 315 314 314 313 315 315 315 313 315 313 316 317 318 320 315 321 316 314 315 317 319 315 318 317
303 304 308 314 312 311 311 312 312 312 314 310 311 314 314 315 315 315 314 314 315 315 315 316 315 314 317 316 314 316 315 315 315 316 317 316 319 315 314 315 316 318 318 317 314
304 307 310 313 311 311 311 312 311 315 315 311 313 314 314 315 315 314 314 313 314 315 314 315 314 316 316 315 314 314 314 314 314 317 319 315 317 315 313 317 318 320 318 315 311
305 309 314 313 309 311 311 311 314 315 311 308 312 314 314 315 315 315 314 313 315 317 317 317 316 315 316 316 313 313 313 316 314 319 316 313 318 316 315 319 322 321 317 312 310
308 314 309 310 311 310 310 312 315 312 311 310 311 312 313 312 312 315 314 314 313 315 315 317 316 315 315 315 314 313 312 314 318 318 321 316 321 319 322 320 317 314 312 310 308
305 304 305 306 308 308 311 315 314 313 311 311 310 310 311 312 311 312 314 314 313 314 316 316 315 315 314 314 314 316 315 312 316 314 315 315 319 320 314 318 316 313 311 308 306
302 301 302 305 304 307 312 313 313 312 312 315 316 314 313 311 312 313 316 314 314 314 313 316 318 315 315 314 313 314 313 316 316 318 319 317 321 316 314 311 312 310 308 306 305
302 303 301 303 305 304 311 311 313 312 312 315 316 315 314 314 313 316 318 316 313 314 314 315 315 314 314 316 314 314 315 317 317 319 320 321 324 310 309 310 310 308 306 304 303
302 304 301 302 304 302 308 309 311 312 312 314 312 313 313 313 313 313 317 316 311 313 317 315 314 314 313 313 313 312 313 314 317 318 318 319 321 312 311 310 310 307 304 302 301
302 300 300 301 305 305 305 308 310 312 314 312 309 310 309 311 313 312 313 312 309 311 317 315 314 315 312 312 312 311 311 315 315 315 315 314 317 314 313 310 307 304 302 300 299
300 301 299 297 299 305 306 308 311 310 310 311 309 308 310 311 311 311 314 310 309 309 308 309 312 311 312 313 312 310 309 310 312 310 310 309 316 313 310 307 305 302 300 298 297
301 303 299 300 301 304 307 308 308 311 308 308 309 309 310 310 310 309 311 312 308 305 306 309 309 309 310 311 307 306 307 308 309 308 307 307 310 310 306 304 302 300 299 297 296
299 303 304 302 301 302 304 311 309 309 310 307 309 309 309 309 309 310 312 311 308 305 308 307 309 308 309 308 305 304 303 302 303 303 303 307 307 303 302 301 299 298 297 295 293
297 301 302 302 304 303 302 305 308 308 308 307 307 308 310 309 308 306 308 309 307 305 305 305 306 307 308 307 305 301 306 306 307 306 307 307 306 301 299 297 295 295 294 293 291

GFSSW_925_thetae_114.txt.gz
Theta_e
322 322 322 320 320 320 320 320 320 318 318 319 320 320 319 319 319 319 317 320 321 318 317 311 309 310 310 311 313 310 310 311 313 315 315 316 317 317 315 315 315 317 319 320 320
315 315 313 312 311 309 309 309 309 313 315 317 317 318 316 316 316 314 315 319 317 311 309 308 309 312 310 311 311 310 309 312 312 314 315 315 316 315 316 316 317 316 317 319 319
310 310 309 308 307 307 307 307 307 311 314 315 315 316 314 314 313 317 313 310 316 315 312 309 310 313 313 313 312 311 313 313 314 315 315 316 317 316 316 316 315 316 316 315 316
310 309 307 306 305 305 305 306 307 309 315 314 315 314 314 313 312 313 311 316 316 315 310 310 311 313 314 314 313 315 314 315 316 316 314 315 313 315 314 315 314 314 312 314 314
307 308 307 306 304 304 305 306 308 308 313 314 314 314 313 311 314 312 313 316 316 316 310 310 313 314 315 314 315 316 316 316 316 316 315 315 315 315 315 314 312 311 312 312 312
305 308 307 304 305 306 307 309 311 311 313 314 313 312 309 313 310 310 313 314 315 314 311 310 313 314 315 316 316 315 316 314 313 313 313 315 315 314 315 313 314 314 313 312 312
305 306 304 305 306 308 311 309 311 311 312 313 313 309 308 312 309 310 311 311 313 314 311 313 313 314 314 315 315 315 315 314 314 313 314 314 315 315 315 313 315 315 315 313 311
305 304 304 305 307 309 309 310 310 311 312 314 311 306 310 310 311 311 311 312 313 314 314 315 315 312 313 313 313 314 313 315 313 314 314 314 317 317 315 314 314 312 314 315 312
303 303 304 305 307 309 310 310 310 311 312 313 309 307 312 310 311 312 312 312 315 315 315 315 313 312 313 314 313 313 314 315 315 314 314 316 317 315 315 315 315 314 314 316 314
302 303 303 304 306 310 311 310 310 311 310 308 308 309 309 311 312 314 314 313 314 315 316 313 310 311 311 312 315 314 314 312 313 312 314 314 316 316 314 313 314 313 314 315 312
302 303 303 304 307 311 311 310 309 309 307 309 310 312 311 312 313 315 315 315 314 314 316 314 314 313 312 312 314 314 314 314 313 311 313 313 314 314 313 313 312 313 314 315 318
302 302 302 305 309 312 311 308 310 311 312 308 310 310 310 310 312 312 313 314 313 315 314 315 316 315 313 312 314 315 315 314 312 312 313 311 314 313 313 313 312 312 314 319 318
302 302 302 307 310 311 311 311 311 312 311 313 311 310 312 311 312 312 311 311 313 313 313 315 314 313 313 313 314 313 314 313 312 314 312 312 314 313 312 312 312 313 312 318 318
302 302 303 308 309 310 310 310 311 312 306 311 314 313 313 314 315 312 312 312 312 314 313 313 313 313 313 314 313 314 314 315 316 315 316 314 318 313 311 311 312 312 316 317 314
302 302 304 309 310 311 311 311 312 311 298 307 313 312 314 314 313 315 312 312 313 313 313 314 314 313 314 314 314 315 314 314 315 315 314 314 315 312 311 312 312 318 316 313 311
302 302 306 307 310 311 311 311 311 313 305 310 312 315 316 314 315 313 314 312 312 314 313 313 313 313 314 314 313 313 313 313 313 314 312 312 314 312 311 316 318 318 314 311 309
302 304 307 309 309 311 311 310 314 311 308 309 312 315 315 315 315 313 313 314 314 316 316 315 315 314 314 316 313 312 312 317 310 315 314 313 314 313 320 317 319 314 310 308 307
303 307 310 309 311 311 311 312 314 311 309 309 311 312 314 315 315 315 313 312 311 313 314 316 316 315 314 315 315 312 312 314 315 316 315 313 314 318 312 307 309 310 308 307 305
304 306 307 309 311 310 311 313 311 310 310 310 309 309 309 313 312 314 313 313 312 312 315 315 315 313 314 314 312 313 312 311 315 313 311 311 315 314 308 306 305 303 304 304 303
303 303 303 308 307 309 312 312 311 310 310 311 315 313 313 309 310 311 313 314 313 312 312 314 316 313 314 313 313 313 311 315 313 315 318 315 316 313 312 308 306 303 301 299 300
302 301 302 305 306 308 310 310 310 309 310 313 313 315 314 313 312 315 315 315 313 314 312 313 315 314 315 315 315 314 315 316 314 314 317 318 316 311 310 309 306 303 301 301 299
302 304 301 304 305 302 309 309 309 311 311 311 313 314 313 312 312 312 317 315 310 310 315 315 315 317 313 314 312 313 314 316 313 313 314 313 318 311 310 310 306 304 301 299 296
302 301 300 301 306 305 305 309 309 311 311 312 313 312 310 310 313 312 313 312 310 312 316 314 315 317 315 313 311 312 311 313 313 314 315 312 314 312 311 308 303 301 299 297 296
298 300 299 298 300 304 305 307 309 308 310 312 312 311 309 310 310 311 313 311 309 309 312 314 315 315 315 313 311 310 310 313 314 313 310 309 313 312 308 304 301 298 296 295 294
297 301 299 301 300 303 304 305 306 309 310 308 312 309 308 309 310 311 312 310 307 310 308 308 310 310 310 311 310 309 304 308 312 310 309 308 312 309 304 301 299 297 296 294 293
298 301 300 299 300 302 304 309 306 307 308 310 310 308 308 308 308 307 310 310 308 303 307 307 309 309 311 310 306 304 303 302 302 306 309 309 309 304 300 298 297 296 294 293 291
296 299 302 303 300 302 302 303 305 306 307 307 307 308 310 308 307 305 307 307 307 305 305 306 307 310 313 310 309 307 303 307 306 305 307 306 305 300 297 296 295 294 293 291 290

GFSSW_925_thetae_120.txt.gz
Theta_e
323 322 322 321 320 319 317 312 309 308 308 308 310 312 313 312 310 310 310 310 317 318 315 312 311 312 310 310 309 306 308 311 314 313 314 313 313 313 313 313 313 314 315 315 316
319 318 318 316 315 311 309 308 307 307 307 307 310 312 312 312 311 309 314 315 317 311 314 311 309 309 309 310 308 308 308 310 310 311 313 312 313 313 314 313 315 314 313 315 315
314 313 312 311 310 308 306 306 305 305 306 307 311 312 312 311 308 308 315 313 315 313 313 311 309 311 312 310 310 308 310 309 311 311 313 313 314 314 315 315 315 314 313 312 312
311 310 310 309 307 306 304 304 304 305 305 307 312 310 311 311 303 311 308 312 315 314 315 310 310 312 312 312 311 313 311 312 313 313 312 313 313 314 313 315 313 311 310 309 309
309 308 307 308 307 304 304 305 305 307 308 309 311 312 311 310 310 311 310 311 312 313 312 310 312 313 314 314 313 315 314 313 312 311 311 311 312 313 312 311 310 310 310 310 310
306 305 305 307 305 304 305 306 307 307 309 312 312 311 310 310 308 309 310 312 312 314 312 309 312 312 314 314 314 313 313 311 311 312 311 312 312 313 312 310 312 312 312 311 310
305 304 305 304 304 305 307 307 307 309 309 310 311 310 307 309 308 310 310 310 309 310 310 311 311 313 312 313 312 312 313 311 312 311 312 310 310 311 310 309 309 309 310 310 310
304 306 304 303 304 306 308 308 308 308 309 310 311 309 308 308 309 307 308 309 308 310 311 313 313 311 312 311 311 313 311 313 310 310 311 311 311 311 310 310 310 309 310 310 309
306 304 303 303 304 306 308 309 309 309 309 309 310 308 308 307 307 309 310 310 311 310 311 313 312 312 311 311 311 310 311 313 311 309 310 310 312 312 310 310 309 310 308 307 307
306 302 303 303 303 306 308 309 309 308 308 308 308 307 305 306 309 312 312 312 313 312 313 313 308 310 308 310 311 311 313 311 311 309 308 310 312 310 308 307 309 309 307 306 312
304 302 302 302 303 307 309 308 306 306 308 307 307 307 308 309 310 312 312 311 313 313 314 310 312 313 314 310 310 311 310 311 309 309 311 312 311 309 308 308 307 307 306 308 310
303 301 302 302 305 308 309 306 305 309 309 306 307 307 308 308 309 308 312 314 313 315 312 312 313 312 311 310 312 312 313 313 311 311 311 309 310 310 309 309 311 311 311 312 309
303 301 302 302 307 307 308 308 310 310 309 309 308 308 308 308 308 308 311 312 313 314 314 314 314 313 313 312 313 312 313 313 313 311 310 310 311 309 310 313 313 309 308 307 305
302 301 301 303 305 307 307 308 310 310 301 305 312 311 310 309 311 308 310 310 311 314 312 314 313 313 314 315 313 315 312 312 312 313 312 311 314 312 312 311 314 309 307 306 304
300 301 301 305 306 308 308 308 310 307 296 306 312 310 310 310 311 312 309 311 311 312 311 312 312 312 312 312 311 312 311 312 312 312 312 313 312 309 310 311 313 309 306 303 302
301 300 301 303 306 307 308 309 309 297 294 309 312 313 313 313 313 311 310 310 309 311 311 310 310 309 311 311 310 311 312 311 310 309 314 312 312 308 311 310 309 305 303 301 300
302 301 302 304 304 305 309 311 308 300 301 307 315 315 314 314 313 313 311 311 311 313 313 312 311 311 312 313 311 312 314 316 313 313 315 310 310 311 309 308 307 304 303 300 299
302 302 302 302 303 305 309 312 309 302 303 306 313 314 315 313 312 312 311 310 309 311 311 313 312 311 312 312 313 310 313 318 318 313 311 310 311 313 308 305 304 302 301 300 297
302 302 302 302 303 306 309 311 305 306 308 306 304 310 313 313 311 313 312 311 310 309 312 312 314 312 313 311 312 313 316 312 316 313 314 310 311 309 308 306 305 304 302 301 298
302 302 303 304 306 307 308 308 308 306 308 309 304 304 305 308 313 312 312 311 312 310 309 311 314 312 312 311 310 311 309 314 314 317 316 311 311 309 309 307 304 303 302 300 298
302 302 302 305 306 307 308 306 306 307 307 307 309 311 312 312 310 310 312 311 311 310 310 310 312 313 313 314 313 312 312 312 312 313 313 314 310 302 308 306 303 302 301 298 296
301 303 301 305 307 305 307 306 306 306 307 307 310 310 310 311 312 312 312 311 310 310 311 310 312 314 314 312 311 313 313 313 315 312 311 305 307 308 308 306 305 304 300 297 295
301 301 300 302 306 306 305 307 306 307 307 308 308 310 311 311 312 310 310 310 309 312 312 313 313 316 311 311 311 314 313 312 312 312 315 310 309 309 308 308 305 302 298 295 292
299 301 299 301 303 304 306 307 308 307 307 308 309 308 309 309 309 310 311 311 309 310 313 312 312 312 312 310 310 313 313 314 315 316 314 311 311 308 310 309 300 296 293 291 291
300 301 299 301 303 304 305 305 306 307 308 308 310 309 309 310 309 309 309 310 307 309 312 310 313 312 311 311 312 311 312 313 316 315 315 312 310 310 309 304 297 294 293 292 291
298 300 300 299 301 304 303 304 305 305 306 308 308 308 308 309 308 308 308 308 309 309 309 307 309 309 310 310 312 312 311 310 312 314 313 311 310 308 302 297 295 294 293 291 291
295 298 296 297 299 303 303 303 303 304 304 304 305 308 308 307 306 306 306 306 308 308 305 307 308 309 311 309 309 313 310 308 306 305 309 312 308 301 299 298 295 294 293 291 290